DW7501 Weather Reports


time (UTC)temp
F
wind
direction
speed
knots
gust
knots
rain 1hr
in
rain 24hr
in
rain mn
in
humidity
%
barometer
mb
20190718072353 69 157 2.6 7.8 0.00 0.00 0.00 72 1009.9
20190718072252 69 158 2.6 7.8 0.00 0.00 0.00 71 1009.9
20190718072152 69 158 2.6 7.8 0.00 0.00 0.00 71 1009.9
20190718072053 69 159 2.6 7.8 0.00 0.00 0.00 71 1009.9
20190718071952 69 158 2.6 7.0 0.00 0.00 0.00 71 1009.8
20190718071853 69 161 2.6 7.8 0.00 0.00 0.00 71 1009.8
20190718071752 69 163 2.6 7.8 0.00 0.00 0.00 71 1009.9
20190718071653 69 165 2.6 7.8 0.00 0.00 0.00 71 1009.9
20190718071553 69 165 2.6 7.8 0.00 0.00 0.00 71 1009.9
20190718071453 69 164 2.6 7.8 0.00 0.00 0.00 72 1010.0
20190718071352 69 166 2.6 7.8 0.00 0.00 0.00 71 1010.0
20190718071252 69 165 2.6 7.8 0.00 0.00 0.00 71 1010.0
20190718071152 69 163 2.6 7.8 0.00 0.00 0.00 71 1010.1
20190718071052 69 161 2.6 7.8 0.00 0.00 0.00 71 1010.1
20190718070952 69 162 2.6 7.8 0.00 0.00 0.00 71 1010.1
20190718070853 69 162 2.6 7.8 0.00 0.00 0.00 71 1010.1
20190718070753 69 161 2.6 7.8 0.00 0.00 0.00 71 1010.1
20190718070652 69 158 2.6 7.8 0.00 0.00 0.00 71 1010.1
20190718070552 70 159 2.6 7.8 0.00 0.00 0.00 71 1010.1
20190718070453 70 160 2.6 7.8 0.00 0.00 0.00 71 1010.1
20190718070352 70 157 2.6 7.8 0.00 0.00 0.00 71 1010.1
20190718070252 70 156 2.6 7.8 0.00 0.00 0.00 72 1010.1
20190718070152 70 159 2.6 7.8 0.00 0.00 0.00 71 1010.1
20190718070052 70 157 2.6 7.8 0.00 0.00 0.00 72 1010.2
20190718065953 70 157 2.6 7.8 0.00 0.00 0.00 71 1010.2
20190718065853 70 156 2.6 7.8 0.00 0.00 0.00 71 1010.2
20190718065752 70 158 2.6 7.8 0.00 0.00 0.00 71 1010.2
20190718065652 70 160 2.6 7.8 0.00 0.00 0.00 71 1010.1
20190718065552 70 160 2.6 6.1 0.00 0.00 0.00 71 1010.2
20190718065453 70 160 2.6 6.1 0.00 0.00 0.00 71 1010.2
20190718065352 70 159 2.6 6.1 0.00 0.00 0.00 71 1010.3
20190718065253 70 158 2.6 6.1 0.00 0.00 0.00 71 1010.3
20190718065152 70 157 2.6 6.1 0.00 0.00 0.00 71 1010.3
20190718065052 70 160 2.6 6.1 0.00 0.00 0.00 71 1010.3
20190718064953 70 160 2.6 7.8 0.00 0.00 0.00 71 1010.3
20190718064852 70 160 2.6 7.8 0.00 0.00 0.00 71 1010.3
20190718064752 70 157 2.6 7.8 0.00 0.00 0.00 71 1010.3
20190718064653 70 157 2.6 7.8 0.00 0.00 0.00 71 1010.3
20190718064552 70 155 2.6 7.8 0.00 0.00 0.00 71 1010.4
20190718064453 70 156 2.6 7.8 0.00 0.00 0.00 71 1010.4
20190718064352 70 156 2.6 7.8 0.00 0.00 0.00 71 1010.4
20190718064252 70 155 2.6 7.8 0.00 0.00 0.00 71 1010.4
20190718064153 70 153 3.5 7.8 0.00 0.00 0.00 70 1010.4
20190718064052 70 152 3.5 7.8 0.00 0.00 0.00 70 1010.5
20190718063953 70 148 3.5 8.7 0.00 0.00 0.00 70 1010.4
20190718063852 70 146 3.5 10.4 0.00 0.00 0.00 70 1010.4
20190718063752 70 146 4.3 10.4 0.00 0.00 0.00 70 1010.4
20190718063652 70 144 4.3 10.4 0.00 0.00 0.00 70 1010.4
20190718063552 70 143 4.3 10.4 0.00 0.00 0.00 70 1010.5
20190718063453 70 142 4.3 10.4 0.00 0.00 0.00 70 1010.5
20190718063352 70 140 4.3 10.4 0.00 0.00 0.00 70 1010.4
20190718063252 70 141 4.3 10.4 0.00 0.00 0.00 70 1010.4
20190718063152 70 141 4.3 10.4 0.00 0.00 0.00 70 1010.4
20190718063053 70 140 4.3 10.4 0.00 0.00 0.00 70 1010.4
20190718062954 70 142 4.3 10.4 0.00 0.00 0.00 70 1010.4
20190718062852 70 141 4.3 10.4 0.00 0.00 0.00 70 1010.4
20190718062752 70 142 4.3 10.4 0.00 0.00 0.00 70 1010.4
20190718062652 70 141 4.3 9.6 0.00 0.00 0.00 71 1010.5
20190718062552 70 140 4.3 9.6 0.00 0.00 0.00 71 1010.5
20190718062452 70 139 4.3 9.6 0.00 0.00 0.00 71 1010.6
20190718062352 70 139 4.3 10.4 0.00 0.00 0.00 71 1010.6
20190718062252 70 138 4.3 10.4 0.00 0.00 0.00 70 1010.5
20190718062152 70 137 5.2 10.4 0.00 0.00 0.00 71 1010.5
20190718062052 70 136 5.2 10.4 0.00 0.00 0.00 70 1010.5
20190718061952 70 136 4.3 10.4 0.00 0.00 0.00 71 1010.5
20190718061853 70 136 4.3 10.4 0.00 0.00 0.00 71 1010.5
20190718061752 70 135 4.3 10.4 0.00 0.00 0.00 70 1010.5
20190718061652 70 137 4.3 10.4 0.00 0.00 0.00 70 1010.5
20190718061553 70 137 4.3 10.4 0.00 0.00 0.00 70 1010.6
20190718061452 70 135 4.3 10.4 0.00 0.00 0.00 71 1010.5
20190718061352 70 134 4.3 10.4 0.00 0.00 0.00 70 1010.6
20190718061252 70 135 4.3 10.4 0.00 0.00 0.00 70 1010.6
20190718061152 70 135 4.3 10.4 0.00 0.00 0.00 70 1010.6
20190718061053 70 137 4.3 8.7 0.00 0.00 0.00 70 1010.6
20190718060952 70 135 4.3 10.4 0.00 0.00 0.00 70 1010.6
20190718060852 70 135 4.3 10.4 0.00 0.00 0.00 70 1010.6
20190718060753 70 135 5.2 10.4 0.00 0.00 0.00 70 1010.7
20190718060652 70 133 5.2 10.4 0.00 0.00 0.00 70 1010.6
20190718060552 70 133 5.2 10.4 0.00 0.00 0.00 70 1010.6
20190718060452 70 133 5.2 10.4 0.00 0.00 0.00 70 1010.7
20190718060353 70 134 5.2 10.4 0.00 0.00 0.00 70 1010.7
20190718060252 70 134 5.2 10.4 0.00 0.00 0.00 70 1010.6
20190718060152 70 135 4.3 10.4 0.00 0.00 0.00 70 1010.7
20190718060052 70 134 4.3 10.4 0.00 0.00 0.00 70 1010.7
20190718055955 70 134 4.3 9.6 0.00 0.00 0.00 70 1010.7
20190718055852 70 135 4.3 9.6 0.00 0.00 0.00 70 1010.7
20190718055752 70 137 4.3 9.6 0.00 0.00 0.00 70 1010.7
20190718055652 70 138 4.3 9.6 0.00 0.00 0.00 70 1010.7
20190718055552 70 141 3.5 9.6 0.00 0.00 0.00 70 1010.7
20190718055453 70 143 3.5 9.6 0.00 0.00 0.00 70 1010.7
20190718055352 70 144 3.5 8.7 0.00 0.00 0.00 70 1010.8
20190718055253 70 143 3.5 8.7 0.00 0.00 0.00 70 1010.7
20190718055152 70 143 2.6 8.7 0.00 0.00 0.00 71 1010.7
20190718055052 70 144 2.6 8.7 0.00 0.00 0.00 71 1010.7
20190718054953 70 143 2.6 8.7 0.00 0.00 0.00 71 1010.8
20190718054852 70 144 2.6 8.7 0.00 0.00 0.00 71 1010.8
20190718054752 70 146 2.6 8.7 0.00 0.00 0.00 71 1010.8
20190718054653 70 147 1.7 6.1 0.00 0.00 0.00 71 1010.8
20190718054553 70 148 2.6 6.1 0.00 0.00 0.00 71 1010.8
20190718054453 70 149 2.6 9.6 0.00 0.00 0.00 71 1010.8
20190718054352 70 152 2.6 9.6 0.00 0.00 0.00 71 1010.9
20190718054252 70 155 2.6 9.6 0.00 0.00 0.00 71 1010.8
20190718054152 70 155 1.7 9.6 0.00 0.00 0.00 71 1010.9
20190718054052 70 158 1.7 9.6 0.00 0.00 0.00 71 1010.9
20190718053953 70 160 1.7 9.6 0.00 0.00 0.00 71 1010.9
20190718053852 70 159 1.7 9.6 0.00 0.00 0.00 72 1010.9
20190718053753 70 156 1.7 9.6 0.00 0.00 0.00 72 1010.9
20190718053652 70 156 1.7 9.6 0.00 0.00 0.00 72 1010.9
20190718053552 70 155 1.7 9.6 0.00 0.00 0.00 72 1010.9
20190718053453 70 155 1.7 5.2 0.00 0.00 0.00 72 1010.9
20190718053352 70 155 1.7 5.2 0.00 0.00 0.00 72 1010.9
20190718053252 70 156 1.7 5.2 0.00 0.00 0.00 72 1010.9
20190718053152 70 156 1.7 5.2 0.00 0.00 0.00 72 1010.9
20190718053052 70 155 1.7 5.2 0.00 0.00 0.00 73 1011.0
20190718052953 70 154 1.7 5.2 0.00 0.00 0.00 73 1011.0
20190718052853 70 156 1.7 5.2 0.00 0.00 0.00 73 1011.0
20190718052752 70 158 1.7 5.2 0.00 0.00 0.00 73 1011.0
20190718052652 70 160 1.7 5.2 0.00 0.00 0.00 73 1011.0
20190718052552 70 165 1.7 5.2 0.00 0.00 0.00 73 1011.0
20190718052453 70 167 1.7 5.2 0.00 0.00 0.00 73 1011.0
20190718052352 70 166 1.7 4.3 0.00 0.00 0.00 73 1010.9
20190718052252 70 165 1.7 4.3 0.00 0.00 0.00 73 1011.0
20190718052152 70 167 1.7 4.3 0.00 0.00 0.00 74 1010.9
20190718052053 71 167 1.7 4.3 0.00 0.00 0.00 74 1011.0
20190718051952 71 167 1.7 4.3 0.00 0.00 0.00 74 1011.0
20190718051852 71 166 1.7 4.3 0.00 0.00 0.00 74 1011.0
20190718051752 71 166 1.7 4.3 0.00 0.00 0.00 74 1011.0
20190718051652 71 164 1.7 4.3 0.00 0.00 0.00 74 1011.0
20190718051552 71 160 1.7 5.2 0.00 0.00 0.00 74 1011.0
20190718051452 71 157 1.7 5.2 0.00 0.00 0.00 74 1011.0
20190718051353 71 159 1.7 5.2 0.00 0.00 0.00 74 1011.0
20190718051252 71 156 1.7 6.1 0.00 0.00 0.00 73 1011.0
20190718051152 71 153 1.7 6.1 0.00 0.00 0.00 73 1011.0
20190718051052 71 149 1.7 6.1 0.00 0.00 0.00 73 1011.0
20190718050953 71 147 1.7 6.1 0.00 0.00 0.00 73 1010.9
20190718050852 71 144 1.7 7.8 0.00 0.00 0.00 72 1010.9
20190718050753 71 143 2.6 8.7 0.00 0.00 0.00 72 1010.9
20190718050652 71 142 2.6 8.7 0.00 0.00 0.00 72 1010.9
20190718050552 71 141 2.6 8.7 0.00 0.00 0.00 72 1010.9
20190718050453 71 139 2.6 8.7 0.00 0.00 0.00 72 1010.9
20190718050352 71 136 2.6 8.7 0.00 0.00 0.00 72 1010.9
20190718050252 71 134 2.6 8.7 0.00 0.00 0.00 72 1010.9
20190718050152 71 133 2.6 8.7 0.00 0.00 0.00 72 1010.8
20190718050052 71 135 2.6 8.7 0.00 0.00 0.00 72 1010.8
20190718045954 71 134 2.6 8.7 0.00 0.00 0.00 72 1010.8
20190718045852 71 133 3.5 8.7 0.00 0.00 0.00 72 1010.8
20190718045752 71 132 3.5 7.0 0.00 0.00 0.00 72 1010.8
20190718045653 71 131 3.5 8.7 0.00 0.00 0.00 72 1010.8
20190718045552 71 131 3.5 8.7 0.00 0.00 0.00 72 1010.8
20190718045452 71 131 3.5 8.7 0.00 0.00 0.00 72 1010.8
20190718045352 71 131 4.3 8.7 0.00 0.00 0.00 72 1010.9
20190718045252 71 132 4.3 8.7 0.00 0.00 0.00 72 1010.8
20190718045151 71 132 4.3 8.7 0.00 0.00 0.00 72 1010.8
20190718045052 71 130 4.3 8.7 0.00 0.00 0.00 72 1010.8
20190718044952 71 130 4.3 8.7 0.00 0.00 0.00 72 1010.9
20190718044852 71 132 4.3 8.7 0.00 0.00 0.00 72 1010.8
20190718044752 71 132 4.3 8.7 0.00 0.00 0.00 73 1010.8
20190718044652 71 132 4.3 8.7 0.00 0.00 0.00 73 1010.9
20190718044552 71 133 4.3 8.7 0.00 0.00 0.00 73 1010.9
20190718044452 71 132 4.3 8.7 0.00 0.00 0.00 73 1010.9
20190718044352 71 133 4.3 8.7 0.00 0.00 0.00 73 1010.9
20190718044252 71 132 4.3 8.7 0.00 0.00 0.00 73 1010.9
20190718044152 71 132 4.3 8.7 0.00 0.00 0.00 73 1010.9
20190718044052 71 134 3.5 8.7 0.00 0.00 0.00 73 1010.9
20190718043952 71 134 3.5 8.7 0.00 0.00 0.00 73 1010.8
20190718043852 72 134 3.5 8.7 0.00 0.00 0.00 73 1010.9
20190718043752 72 135 3.5 8.7 0.00 0.00 0.00 73 1010.9
20190718043652 72 134 3.5 7.8 0.00 0.00 0.00 73 1010.9
20190718043552 72 134 3.5 7.8 0.00 0.00 0.00 73 1010.9
20190718043453 72 134 3.5 8.7 0.00 0.00 0.00 73 1010.9
20190718043352 72 133 3.5 8.7 0.00 0.00 0.00 73 1010.9
20190718043252 72 132 3.5 8.7 0.00 0.00 0.00 73 1010.9
20190718043152 72 132 3.5 8.7 0.00 0.00 0.00 73 1010.9
20190718043052 72 132 3.5 8.7 0.00 0.00 0.00 73 1010.9
20190718042954 72 133 4.3 8.7 0.00 0.00 0.00 73 1011.0
20190718042852 72 132 4.3 10.4 0.00 0.00 0.00 73 1011.0
20190718042752 72 131 4.3 10.4 0.00 0.00 0.00 73 1011.0
20190718042652 72 131 4.3 10.4 0.00 0.00 0.00 73 1011.0
20190718042552 72 131 4.3 10.4 0.00 0.00 0.00 73 1011.0
20190718042453 72 132 4.3 10.4 0.00 0.00 0.00 73 1011.0
20190718042352 72 133 4.3 10.4 0.00 0.00 0.00 73 1011.0
20190718042252 72 133 4.3 10.4 0.00 0.00 0.00 73 1011.0
20190718042152 72 132 4.3 10.4 0.00 0.00 0.00 73 1011.0
20190718042052 72 132 4.3 10.4 0.00 0.00 0.00 73 1011.0
20190718041952 72 132 4.3 10.4 0.00 0.00 0.00 73 1011.0
20190718041852 72 132 4.3 8.7 0.00 0.00 0.00 73 1011.0
20190718041752 72 132 4.3 8.7 0.00 0.00 0.00 73 1011.0
20190718041652 72 131 4.3 8.7 0.00 0.00 0.00 73 1011.0
20190718041553 72 131 4.3 8.7 0.00 0.00 0.00 73 1011.0
20190718041452 72 131 4.3 8.7 0.00 0.00 0.00 73 1011.0
20190718041352 72 131 5.2 8.7 0.00 0.00 0.00 73 1011.0
20190718041252 72 130 5.2 8.7 0.00 0.00 0.00 73 1011.0
20190718041152 72 130 5.2 8.7 0.00 0.00 0.00 73 1011.0
20190718041052 72 129 5.2 8.7 0.00 0.00 0.00 73 1011.0
20190718040952 72 129 5.2 8.7 0.00 0.00 0.00 73 1011.0
20190718040852 72 128 5.2 8.7 0.00 0.00 0.00 74 1011.0
20190718040752 72 129 5.2 8.7 0.00 0.00 0.00 74 1011.0
20190718040652 72 129 5.2 8.7 0.00 0.00 0.00 74 1011.0
20190718040552 72 128 4.3 8.7 0.00 0.00 0.00 74 1011.0
20190718040452 72 129 4.3 8.7 0.00 0.00 0.00 74 1011.0
20190718040352 72 129 4.3 8.7 0.00 0.00 0.00 74 1011.0
20190718040252 72 129 4.3 8.7 0.00 0.00 0.00 74 1011.0
20190718040152 72 129 4.3 8.7 0.00 0.00 0.00 74 1011.0
20190718040053 72 129 4.3 8.7 0.00 0.00 0.00 74 1011.0
20190718035958 72 129 4.3 8.7 0.00 0.00 0.00 74 1011.0
20190718035852 72 129 4.3 7.8 0.00 0.00 0.00 74 1011.0
20190718035751 72 128 4.3 7.8 0.00 0.00 0.00 74 1011.1
20190718035652 72 128 4.3 7.8 0.00 0.00 0.00 74 1011.0
20190718035552 72 128 4.3 7.8 0.00 0.00 0.00 74 1011.0
20190718035452 72 128 4.3 7.8 0.00 0.00 0.00 74 1011.0
20190718035352 72 127 5.2 8.7 0.00 0.00 0.00 74 1011.0
20190718035252 72 126 5.2 8.7 0.00 0.00 0.00 74 1011.0
20190718035151 72 126 5.2 8.7 0.00 0.00 0.00 74 1011.0
20190718035052 72 126 5.2 8.7 0.00 0.00 0.00 74 1011.0
20190718034952 72 125 5.2 8.7 0.00 0.00 0.00 74 1011.0
20190718034851 72 124 5.2 8.7 0.00 0.00 0.00 74 1011.0
20190718034752 72 124 5.2 8.7 0.00 0.00 0.00 74 1011.0
20190718034652 72 123 5.2 8.7 0.00 0.00 0.00 74 1011.0
20190718034551 72 123 5.2 8.7 0.00 0.00 0.00 74 1010.9
20190718034452 72 122 5.2 8.7 0.00 0.00 0.00 75 1010.9
20190718034353 72 122 5.2 8.7 0.00 0.00 0.00 75 1010.9
20190718034252 72 122 6.1 8.7 0.00 0.00 0.00 75 1010.9
20190718034152 72 122 6.1 8.7 0.00 0.00 0.00 75 1010.9
20190718034051 72 122 6.1 8.7 0.00 0.00 0.00 75 1010.8
20190718033952 72 121 6.1 8.7 0.00 0.00 0.00 75 1010.8
20190718033852 72 120 6.1 8.7 0.00 0.00 0.00 75 1010.8
20190718033752 72 119 6.1 8.7 0.00 0.00 0.00 75 1010.8
20190718033651 72 118 6.1 9.6 0.00 0.00 0.00 75 1010.9
20190718033552 72 117 6.1 9.6 0.00 0.00 0.00 75 1010.9
20190718033452 72 117 6.1 9.6 0.00 0.00 0.00 75 1011.0
20190718033352 72 116 6.1 9.6 0.00 0.00 0.00 75 1011.0
20190718033252 72 116 6.1 9.6 0.00 0.00 0.00 75 1011.0
20190718033152 72 115 6.1 9.6 0.00 0.00 0.00 75 1011.0
20190718033053 72 115 6.1 9.6 0.00 0.00 0.00 75 1011.0
20190718032953 72 114 6.1 9.6 0.00 0.00 0.00 75 1011.0
20190718032852 72 114 6.1 9.6 0.00 0.00 0.00 75 1011.0
20190718032752 72 115 6.1 9.6 0.00 0.00 0.00 75 1010.9
20190718032651 72 115 6.1 8.7 0.00 0.00 0.00 75 1011.0
20190718032552 72 115 6.1 8.7 0.00 0.00 0.00 75 1010.9
20190718032452 72 114 6.1 8.7 0.00 0.00 0.00 75 1010.9
20190718032352 72 113 6.1 8.7 0.00 0.00 0.00 75 1010.9
20190718032252 72 113 5.2 8.7 0.00 0.00 0.00 75 1010.9
20190718032152 72 112 5.2 8.7 0.00 0.00 0.00 75 1011.0
20190718032052 72 111 5.2 8.7 0.00 0.00 0.00 75 1011.0
20190718031952 72 112 5.2 8.7 0.00 0.00 0.00 76 1011.0
20190718031852 72 112 5.2 8.7 0.00 0.00 0.00 76 1011.0
20190718031752 72 112 5.2 8.7 0.00 0.00 0.00 76 1011.0
20190718031651 72 112 4.3 8.7 0.00 0.00 0.00 76 1011.0
20190718031552 72 113 5.2 8.7 0.00 0.00 0.00 76 1011.0
20190718031453 72 113 5.2 8.7 0.00 0.00 0.00 76 1011.1
20190718031352 72 113 5.2 8.7 0.00 0.00 0.00 76 1011.0
20190718031252 72 113 5.2 8.7 0.00 0.00 0.00 76 1011.1
20190718031152 72 113 5.2 7.8 0.00 0.00 0.00 76 1011.1
20190718031052 72 113 5.2 7.8 0.00 0.00 0.00 76 1011.1
20190718030952 72 112 5.2 7.8 0.00 0.00 0.00 76 1011.1
20190718030852 72 111 5.2 7.8 0.00 0.00 0.00 76 1011.0
20190718030752 72 111 5.2 7.8 0.00 0.00 0.00 76 1011.0
20190718030651 72 112 5.2 7.8 0.00 0.00 0.00 76 1011.1
20190718030552 72 112 4.3 7.8 0.00 0.00 0.00 75 1011.0
20190718030452 72 112 4.3 7.8 0.00 0.00 0.00 76 1011.1
20190718030351 72 112 4.3 7.8 0.00 0.00 0.00 75 1011.1
20190718030252 72 113 4.3 7.8 0.00 0.00 0.00 76 1011.1
20190718030152 72 113 4.3 7.8 0.00 0.00 0.00 75 1011.1
20190718030052 72 114 4.3 7.8 0.00 0.00 0.00 75 1011.1
20190718025953 72 114 4.3 7.8 0.00 0.00 0.00 75 1011.1
20190718025851 72 115 4.3 7.8 0.00 0.00 0.00 75 1011.1
20190718025752 72 115 4.3 7.8 0.00 0.00 0.00 75 1011.1
20190718025652 72 115 4.3 7.8 0.00 0.00 0.00 75 1011.1
20190718025552 72 115 3.5 7.8 0.00 0.00 0.00 75 1011.1
20190718025452 72 115 3.5 7.8 0.00 0.00 0.00 75 1011.1
20190718025352 72 114 3.5 7.8 0.00 0.00 0.00 74 1011.1
20190718025252 72 114 3.5 7.8 0.00 0.00 0.00 74 1011.1
20190718025151 72 115 3.5 6.1 0.00 0.00 0.00 74 1011.1
20190718025052 72 115 3.5 6.1 0.00 0.00 0.00 74 1011.1
20190718024952 72 115 3.5 6.1 0.00 0.00 0.00 74 1011.1
20190718024851 72 116 2.6 6.1 0.00 0.00 0.00 74 1011.1
20190718024752 72 116 2.6 6.1 0.00 0.00 0.00 73 1011.2
20190718024652 72 116 2.6 6.1 0.00 0.00 0.00 73 1011.2
20190718024551 72 116 2.6 6.1 0.00 0.00 0.00 73 1011.2
20190718024452 72 116 2.6 6.1 0.00 0.00 0.00 73 1011.2
20190718024352 72 117 2.6 6.1 0.00 0.00 0.00 73 1011.2
20190718024252 73 115 2.6 6.1 0.00 0.00 0.00 73 1011.2
20190718024152 73 115 2.6 5.2 0.00 0.00 0.00 72 1011.2
20190718024052 73 113 2.6 5.2 0.00 0.00 0.00 72 1011.2
20190718023953 73 110 2.6 5.2 0.00 0.00 0.00 72 1011.3
20190718023852 73 108 2.6 5.2 0.00 0.00 0.00 72 1011.2
20190718023752 73 106 2.6 6.1 0.00 0.00 0.00 72 1011.2
20190718023651 73 105 2.6 6.1 0.00 0.00 0.00 72 1011.2
20190718023552 73 101 2.6 6.1 0.00 0.00 0.00 72 1011.2
20190718023452 73 99 2.6 6.1 0.00 0.00 0.00 72 1011.2
20190718023351 73 99 3.5 6.1 0.00 0.00 0.00 71 1011.1
20190718023252 73 98 3.5 6.1 0.00 0.00 0.00 71 1011.2
20190718023152 73 97 3.5 7.8 0.00 0.00 0.00 71 1011.2
20190718023052 73 97 3.5 7.8 0.00 0.00 0.00 71 1011.2
20190718022954 73 97 3.5 7.8 0.00 0.00 0.00 71 1011.2
20190718022852 73 96 3.5 7.8 0.00 0.00 0.00 71 1011.2
20190718022752 73 97 3.5 7.8 0.00 0.00 0.00 71 1011.2
20190718022651 73 96 3.5 7.8 0.00 0.00 0.00 71 1011.2
20190718022552 73 97 3.5 7.8 0.00 0.00 0.00 71 1011.2
20190718022452 73 97 3.5 7.8 0.00 0.00 0.00 71 1011.2
20190718022352 73 95 3.5 7.8 0.00 0.00 0.00 71 1011.2
20190718022252 73 96 3.5 7.8 0.00 0.00 0.00 71 1011.2
20190718022152 73 96 3.5 7.0 0.00 0.00 0.00 71 1011.2
20190718022051 73 97 3.5 7.0 0.00 0.00 0.00 71 1011.2
20190718021952 73 97 3.5 7.0 0.00 0.00 0.00 71 1011.2
20190718021852 73 97 3.5 7.0 0.00 0.00 0.00 71 1011.2
20190718021752 73 98 3.5 7.0 0.00 0.00 0.00 71 1011.2
20190718021652 73 98 3.5 7.0 0.00 0.00 0.00 71 1011.2
20190718021552 73 98 3.5 7.0 0.00 0.00 0.00 71 1011.2
20190718021452 73 97 3.5 7.0 0.00 0.00 0.00 71 1011.1
20190718021352 73 97 3.5 7.0 0.00 0.00 0.00 71 1011.1
20190718021252 73 96 4.3 7.0 0.00 0.00 0.00 71 1011.1
20190718021152 73 96 4.3 7.0 0.00 0.00 0.00 71 1011.1
20190718021052 73 95 4.3 7.0 0.00 0.00 0.00 71 1011.1
20190718020952 73 94 4.3 7.0 0.00 0.00 0.00 71 1011.1
20190718020851 73 93 4.3 7.0 0.00 0.00 0.00 71 1011.1
20190718020752 73 93 4.3 7.0 0.00 0.00 0.00 71 1011.1
20190718020652 73 91 4.3 7.8 0.00 0.00 0.00 71 1011.1
20190718020551 73 90 4.3 7.8 0.00 0.00 0.00 70 1011.1
20190718020452 74 90 4.3 7.8 0.00 0.00 0.00 70 1011.2
20190718020351 74 91 4.3 7.8 0.00 0.00 0.00 70 1011.1
20190718020251 74 91 4.3 7.8 0.00 0.00 0.00 70 1011.1
20190718020152 74 91 4.3 7.8 0.00 0.00 0.00 70 1011.2
20190718020052 74 90 4.3 7.8 0.00 0.00 0.00 70 1011.1
20190718015953 74 90 4.3 7.8 0.00 0.00 0.00 70 1011.1
20190718015851 74 91 4.3 7.8 0.00 0.00 0.00 70 1011.2
20190718015752 74 91 4.3 7.8 0.00 0.00 0.00 70 1011.2
20190718015652 74 92 4.3 7.0 0.00 0.00 0.00 70 1011.2
20190718015552 74 93 4.3 7.0 0.00 0.00 0.00 70 1011.2
20190718015452 74 93 4.3 7.0 0.00 0.00 0.00 69 1011.2
20190718015352 74 93 4.3 7.0 0.00 0.00 0.00 70 1011.2
20190718015251 74 93 4.3 7.0 0.00 0.00 0.00 70 1011.2
20190718015152 74 93 4.3 7.0 0.00 0.00 0.00 69 1011.2
20190718015052 74 94 4.3 7.0 0.00 0.00 0.00 69 1011.2
20190718014952 74 94 5.2 7.0 0.00 0.00 0.00 69 1011.2
20190718014852 74 94 5.2 7.8 0.00 0.00 0.00 69 1011.2
20190718014752 74 94 5.2 7.8 0.00 0.00 0.00 69 1011.2
20190718014651 74 94 5.2 7.8 0.00 0.00 0.00 70 1011.3
20190718014552 74 96 5.2 7.8 0.00 0.00 0.00 69 1011.3
20190718014452 74 96 5.2 7.8 0.00 0.00 0.00 70 1011.3
20190718014352 74 96 5.2 7.8 0.00 0.00 0.00 69 1011.2
20190718014252 74 96 5.2 7.8 0.00 0.00 0.00 70 1011.2
20190718014152 74 96 5.2 7.8 0.00 0.00 0.00 70 1011.2
20190718014051 74 95 5.2 7.8 0.00 0.00 0.00 70 1011.3
20190718013952 74 95 5.2 7.8 0.00 0.00 0.00 70 1011.3
20190718013851 74 94 5.2 7.8 0.00 0.00 0.00 70 1011.2
20190718013752 74 94 5.2 7.8 0.00 0.00 0.00 70 1011.2
20190718013652 74 92 5.2 7.8 0.00 0.00 0.00 70 1011.2
20190718013551 74 91 5.2 7.8 0.00 0.00 0.00 70 1011.3
20190718013452 74 90 4.3 7.8 0.00 0.00 0.00 70 1011.2
20190718013351 74 89 4.3 7.8 0.00 0.00 0.00 70 1011.2
20190718013251 74 89 4.3 7.8 0.00 0.00 0.00 70 1011.2
20190718013152 74 87 4.3 7.8 0.00 0.00 0.00 70 1011.2
20190718013052 74 86 4.3 7.0 0.00 0.00 0.00 70 1011.3
20190718012953 74 84 4.3 7.0 0.00 0.00 0.00 70 1011.4
20190718012852 74 84 3.5 7.0 0.00 0.00 0.00 70 1011.4
20190718012751 74 83 3.5 7.0 0.00 0.00 0.00 70 1011.5
20190718012652 75 83 3.5 7.0 0.00 0.00 0.00 70 1011.5
20190718012552 75 81 3.5 7.0 0.00 0.00 0.00 70 1011.5
20190718012452 75 79 3.5 7.0 0.00 0.00 0.00 70 1011.5
20190718012352 75 78 3.5 7.0 0.00 0.00 0.00 70 1011.4
20190718012251 75 77 3.5 7.0 0.00 0.00 0.00 70 1011.5
20190718012152 75 77 4.3 7.0 0.00 0.00 0.00 69 1011.5
20190718012052 75 76 4.3 7.0 0.00 0.00 0.00 69 1011.6
20190718011953 75 75 4.3 7.0 0.00 0.00 0.00 69 1011.5
20190718011852 75 75 4.3 7.8 0.00 0.00 0.00 69 1011.6
20190718011752 75 74 4.3 7.8 0.00 0.00 0.00 69 1011.6
20190718011652 75 73 4.3 7.8 0.00 0.00 0.00 69 1011.6
20190718011552 75 73 4.3 7.8 0.00 0.00 0.00 69 1011.6
20190718011452 75 74 4.3 7.8 0.00 0.00 0.00 69 1011.6
20190718011352 75 74 4.3 7.8 0.00 0.00 0.00 69 1011.6
20190718011251 75 73 4.3 7.8 0.00 0.00 0.00 69 1011.6
20190718011152 75 73 4.3 7.8 0.00 0.00 0.00 69 1011.6
20190718011052 75 73 4.3 7.8 0.00 0.00 0.00 69 1011.6
20190718010952 75 73 4.3 7.8 0.00 0.00 0.00 69 1011.6
20190718010852 75 73 4.3 7.8 0.00 0.00 0.00 69 1011.6
20190718010751 75 73 4.3 7.8 0.00 0.00 0.00 69 1011.5
20190718010652 75 73 4.3 7.8 0.00 0.00 0.00 69 1011.5
20190718010552 75 73 4.3 7.8 0.00 0.00 0.00 69 1011.5
20190718010452 75 73 4.3 7.8 0.00 0.00 0.00 69 1011.5
20190718010352 75 72 4.3 7.8 0.00 0.00 0.00 70 1011.5
20190718010251 75 72 4.3 7.8 0.00 0.00 0.00 69 1011.5
20190718010152 75 72 4.3 7.8 0.00 0.00 0.00 69 1011.5
20190718010052 75 71 4.3 8.7 0.00 0.00 0.00 69 1011.6
20190718005953 75 70 4.3 8.7 0.00 0.00 0.00 69 1011.6
20190718005852 76 69 4.3 8.7 0.00 0.00 0.00 69 1011.6
20190718005751 76 69 4.3 8.7 0.00 0.00 0.00 69 1011.6
20190718005652 76 68 5.2 9.6 0.00 0.00 0.00 69 1011.6
20190718005552 76 67 5.2 9.6 0.00 0.00 0.00 69 1011.6
20190718005451 76 67 5.2 9.6 0.00 0.00 0.00 69 1011.5
20190718005352 76 67 5.2 9.6 0.00 0.00 0.00 69 1011.5
20190718005251 76 67 5.2 9.6 0.00 0.00 0.00 68 1011.4
20190718005151 76 67 5.2 9.6 0.00 0.00 0.00 68 1011.5
20190718005052 76 67 5.2 9.6 0.00 0.00 0.00 68 1011.4
20190718004952 76 67 5.2 9.6 0.00 0.00 0.00 68 1011.4
20190718004852 76 67 5.2 9.6 0.00 0.00 0.00 68 1011.5
20190718004752 76 67 5.2 9.6 0.00 0.00 0.00 68 1011.5
20190718004651 76 67 4.3 7.8 0.00 0.00 0.00 69 1011.4
20190718004552 76 69 4.3 7.8 0.00 0.00 0.00 68 1011.5
20190718004452 76 69 5.2 7.8 0.00 0.00 0.00 69 1011.5
20190718004352 76 68 4.3 7.8 0.00 0.00 0.00 68 1011.5
20190718004252 76 68 4.3 7.8 0.00 0.00 0.00 68 1011.5
20190718004151 76 68 4.3 7.8 0.00 0.00 0.00 69 1011.5
20190718004052 76 68 4.3 7.8 0.00 0.00 0.00 68 1011.5
20190718003952 76 68 4.3 7.8 0.00 0.00 0.00 68 1011.5
20190718003852 76 68 4.3 7.8 0.00 0.00 0.00 69 1011.5
20190718003751 76 67 4.3 7.8 0.00 0.00 0.00 68 1011.4
20190718003651 76 67 4.3 7.8 0.00 0.00 0.00 68 1011.5
20190718003552 76 66 4.3 7.8 0.00 0.00 0.00 69 1011.4
20190718003452 76 65 4.3 7.8 0.00 0.00 0.00 68 1011.4
20190718003351 76 65 4.3 7.8 0.00 0.00 0.00 68 1011.4
20190718003252 76 65 4.3 7.8 0.00 0.00 0.00 68 1011.4
20190718003152 76 65 4.3 7.8 0.00 0.00 0.00 68 1011.4
20190718003051 76 65 4.3 7.8 0.00 0.00 0.00 68 1011.4
20190718002953 76 65 4.3 7.8 0.00 0.00 0.00 68 1011.4
20190718002852 76 65 4.3 7.8 0.00 0.00 0.00 68 1011.4
20190718002752 76 63 4.3 7.8 0.00 0.00 0.00 69 1011.3
20190718002651 76 62 3.5 7.0 0.00 0.00 0.00 69 1011.3
20190718002552 76 61 3.5 7.0 0.00 0.00 0.00 69 1011.3
20190718002452 77 60 3.5 7.0 0.00 0.00 0.00 68 1011.4
20190718002352 77 57 3.5 6.1 0.00 0.00 0.00 68 1011.4
20190718002252 77 55 3.5 7.0 0.00 0.00 0.00 68 1011.4
20190718002151 77 54 3.5 7.0 0.00 0.00 0.00 68 1011.3
20190718002052 77 52 3.5 7.0 0.00 0.00 0.00 68 1011.3
20190718001952 77 52 3.5 7.0 0.00 0.00 0.00 67 1011.3
20190718001852 76 53 2.6 7.0 0.00 0.00 0.00 69 1011.3
20190718001751 77 53 2.6 7.0 0.00 0.00 0.00 68 1011.3
20190718001651 77 54 2.6 7.0 0.00 0.00 0.00 68 1011.3
20190718001552 77 56 2.6 7.0 0.00 0.00 0.00 68 1011.3
20190718001453 77 55 2.6 7.0 0.00 0.00 0.00 68 1011.3
20190718001351 77 57 2.6 7.0 0.00 0.00 0.00 69 1011.3
20190718001252 77 56 2.6 5.2 0.00 0.00 0.00 68 1011.3
20190718001152 77 55 2.6 5.2 0.00 0.00 0.00 68 1011.3
20190718001051 77 53 2.6 5.2 0.00 0.00 0.00 68 1011.3
20190718000952 77 51 2.6 5.2 0.00 0.00 0.00 68 1011.3
20190718000851 77 50 2.6 5.2 0.00 0.00 0.00 68 1011.3
20190718000752 77 49 2.6 5.2 0.00 0.00 0.00 68 1011.3
20190718000652 77 49 2.6 5.2 0.00 0.00 0.00 68 1011.2
20190718000551 77 46 2.6 4.3 0.00 0.00 0.00 68 1011.3
20190718000452 77 46 2.6 4.3 0.00 0.00 0.00 68 1011.3
20190718000352 77 46 2.6 4.3 0.00 0.00 0.00 68 1011.3
20190718000251 77 49 2.6 4.3 0.00 0.00 0.00 68 1011.3
20190718000151 77 49 2.6 4.3 0.00 0.00 0.00 67 1011.3
20190718000052 77 50 2.6 5.2 0.00 0.00 0.00 68 1011.3
20190717235953 77 51 2.6 5.2 0.00 0.00 0.00 67 1011.3
20190717235852 77 50 2.6 5.2 0.00 0.00 0.00 67 1011.3
20190717235751 77 52 2.6 5.2 0.00 0.00 0.00 66 1011.3
20190717235651 77 51 3.5 5.2 0.00 0.00 0.00 67 1011.3
20190717235552 77 54 3.5 5.2 0.00 0.00 0.00 66 1011.3
20190717235451 77 56 3.5 5.2 0.00 0.00 0.00 66 1011.3
20190717235351 77 57 3.5 5.2 0.00 0.00 0.00 66 1011.3
20190717235252 77 56 3.5 5.2 0.00 0.00 0.00 66 1011.3
20190717235152 77 59 3.5 7.0 0.00 0.00 0.00 66 1011.2
20190717235051 77 61 3.5 7.0 0.00 0.00 0.00 66 1011.2
20190717234952 77 62 3.5 7.0 0.00 0.00 0.00 66 1011.2
20190717234851 77 64 3.5 7.0 0.00 0.00 0.00 66 1011.1
20190717234751 77 63 3.5 7.0 0.00 0.00 0.00 66 1011.1
20190717234652 78 64 3.5 7.0 0.00 0.00 0.00 66 1011.1
20190717234552 78 63 3.5 7.0 0.00 0.00 0.00 66 1011.1
20190717234451 78 62 3.5 7.0 0.00 0.00 0.00 66 1011.1
20190717234352 78 62 3.5 7.0 0.00 0.00 0.00 66 1011.0
20190717234251 78 62 3.5 7.0 0.00 0.00 0.00 65 1011.1
20190717234151 78 61 4.3 7.0 0.00 0.00 0.00 66 1011.1
20190717234051 78 61 4.3 7.0 0.00 0.00 0.00 65 1011.0
20190717233952 78 59 4.3 7.8 0.00 0.00 0.00 65 1011.0
20190717233851 78 59 4.3 7.8 0.00 0.00 0.00 65 1011.1
20190717233752 78 58 4.3 7.8 0.00 0.00 0.00 65 1011.1
20190717233652 78 58 4.3 7.8 0.00 0.00 0.00 64 1011.1
20190717233551 78 58 4.3 7.8 0.00 0.00 0.00 65 1011.2
20190717233452 78 59 4.3 8.7 0.00 0.00 0.00 64 1011.2
20190717233352 78 59 4.3 8.7 0.00 0.00 0.00 64 1011.2
20190717233251 78 60 4.3 8.7 0.00 0.00 0.00 64 1011.2
20190717233151 78 60 4.3 8.7 0.00 0.00 0.00 64 1011.2
20190717233052 78 61 4.3 8.7 0.00 0.00 0.00 64 1011.2
20190717232954 78 63 4.3 8.7 0.00 0.00 0.00 63 1011.2
20190717232852 78 63 4.3 8.7 0.00 0.00 0.00 64 1011.2
20190717232751 79 64 4.3 8.7 0.00 0.00 0.00 64 1011.3
20190717232651 79 64 4.3 8.7 0.00 0.00 0.00 63 1011.2
20190717232551 79 65 4.3 8.7 0.00 0.00 0.00 63 1011.3
20190717232452 79 66 4.3 9.6 0.00 0.00 0.00 64 1011.3
20190717232351 79 66 4.3 9.6 0.00 0.00 0.00 63 1011.2
20190717232252 79 67 5.2 9.6 0.00 0.00 0.00 64 1011.2
20190717232151 79 68 5.2 9.6 0.00 0.00 0.00 64 1011.2
20190717232051 79 69 5.2 9.6 0.00 0.00 0.00 63 1011.2
20190717231952 79 68 5.2 9.6 0.00 0.00 0.00 62 1011.2
20190717231851 79 68 6.1 9.6 0.00 0.00 0.00 65 1011.2
20190717231751 79 68 6.1 10.4 0.00 0.00 0.00 63 1011.1
20190717231652 79 68 6.1 10.4 0.00 0.00 0.00 62 1011.1
20190717231552 79 68 7.0 10.4 0.00 0.00 0.00 62 1011.2
20190717231451 79 67 6.1 10.4 0.00 0.00 0.00 63 1011.1
20190717231352 79 67 7.0 10.4 0.00 0.00 0.00 63 1011.1
20190717231251 79 67 7.0 10.4 0.00 0.00 0.00 62 1011.2
20190717231151 79 66 7.0 10.4 0.00 0.00 0.00 62 1011.1
20190717231052 79 65 7.0 10.4 0.00 0.00 0.00 61 1011.1
20190717230951 79 66 7.0 10.4 0.00 0.00 0.00 61 1011.1
20190717230852 79 66 7.0 10.4 0.00 0.00 0.00 62 1011.1
20190717230752 79 66 7.0 10.4 0.00 0.00 0.00 62 1011.0
20190717230651 79 66 7.0 10.4 0.00 0.00 0.00 62 1011.1
20190717230551 79 67 7.0 10.4 0.00 0.00 0.00 62 1011.1
20190717230452 80 67 6.1 10.4 0.00 0.00 0.00 61 1011.0
20190717230351 80 67 6.1 10.4 0.00 0.00 0.00 62 1011.0
20190717230251 80 67 6.1 10.4 0.00 0.00 0.00 62 1011.1
20190717230152 80 67 6.1 10.4 0.00 0.00 0.00 61 1011.1
20190717230051 80 67 5.2 10.4 0.00 0.00 0.00 62 1011.1
20190717225954 80 65 5.2 10.4 0.00 0.00 0.00 62 1011.1
20190717225851 80 65 4.3 10.4 0.00 0.00 0.00 62 1011.1
20190717225751 80 62 4.3 8.7 0.00 0.00 0.00 63 1011.1
20190717225652 80 61 4.3 7.8 0.00 0.00 0.00 63 1011.1
20190717225551 80 59 4.3 7.8 0.00 0.00 0.00 63 1011.2
20190717225451 80 59 4.3 7.8 0.00 0.00 0.00 64 1011.1
20190717225352 80 58 3.5 7.0 0.00 0.00 0.00 63 1011.2
20190717225251 80 58 4.3 9.6 0.00 0.00 0.00 64 1011.2
20190717225151 80 58 3.5 9.6 0.00 0.00 0.00 64 1011.1
20190717225051 80 59 4.3 9.6 0.00 0.00 0.00 65 1011.0
20190717224951 80 60 4.3 9.6 0.00 0.00 0.00 64 1011.1
20190717224851 80 61 4.3 9.6 0.00 0.00 0.00 65 1011.0
20190717224751 80 62 4.3 9.6 0.00 0.00 0.00 64 1011.0
20190717224652 80 63 4.3 9.6 0.00 0.00 0.00 63 1011.0
20190717224551 80 65 4.3 9.6 0.00 0.00 0.00 64 1011.0
20190717224451 80 66 5.2 9.6 0.00 0.00 0.00 64 1011.0
20190717224352 80 65 5.2 9.6 0.00 0.00 0.00 63 1011.0
20190717224251 80 62 5.2 8.7 0.00 0.00 0.00 62 1010.9
20190717224151 80 60 5.2 8.7 0.00 0.00 0.00 64 1010.9
20190717224051 80 57 5.2 8.7 0.00 0.00 0.00 65 1010.9
20190717223952 80 54 5.2 9.6 0.00 0.00 0.00 64 1010.9
20190717223851 80 53 5.2 9.6 0.00 0.00 0.00 63 1011.0
20190717223752 80 52 5.2 9.6 0.00 0.00 0.00 63 1011.0
20190717223652 80 49 5.2 9.6 0.00 0.00 0.00 61 1011.1
20190717223551 80 46 4.3 9.6 0.00 0.00 0.00 62 1011.2
20190717223452 80 43 4.3 9.6 0.00 0.00 0.00 63 1011.1
20190717223351 80 43 4.3 9.6 0.00 0.00 0.00 62 1011.1
20190717223251 80 47 4.3 9.6 0.00 0.00 0.00 62 1011.1
20190717223151 80 49 4.3 9.6 0.00 0.00 0.00 61 1011.1
20190717223051 80 51 4.3 9.6 0.00 0.00 0.00 62 1011.2
20190717222953 80 50 4.3 8.7 0.00 0.00 0.00 62 1011.2
20190717222852 80 49 4.3 8.7 0.00 0.00 0.00 64 1011.2
20190717222751 80 47 4.3 9.6 0.00 0.00 0.00 62 1011.3
20190717222651 80 45 5.2 9.6 0.00 0.00 0.00 63 1011.3
20190717222552 80 44 4.3 9.6 0.00 0.00 0.00 64 1011.3
20190717222451 80 43 5.2 9.6 0.00 0.00 0.00 61 1011.4
20190717222352 80 43 4.3 9.6 0.00 0.00 0.00 61 1011.4
20190717222252 80 41 4.3 9.6 0.00 0.00 0.00 61 1011.4
20190717222151 80 38 4.3 9.6 0.00 0.00 0.00 62 1011.5
20190717222051 80 36 5.2 9.6 0.00 0.00 0.00 63 1011.4
20190717221952 80 36 5.2 9.6 0.00 0.00 0.00 62 1011.4
20190717221852 80 35 5.2 9.6 0.00 0.00 0.00 62 1011.4
20190717221751 80 37 4.3 9.6 0.00 0.00 0.00 62 1011.5
20190717221651 80 40 4.3 7.8 0.00 0.00 0.00 63 1011.4
20190717221552 80 39 4.3 7.8 0.00 0.00 0.00 61 1011.4
20190717221451 80 39 4.3 8.7 0.00 0.00 0.00 63 1011.5
20190717221351 80 39 5.2 8.7 0.00 0.00 0.00 61 1011.5
20190717221252 80 39 5.2 8.7 0.00 0.00 0.00 62 1011.5
20190717221151 80 39 5.2 9.6 0.00 0.00 0.00 61 1011.5
20190717221051 80 39 5.2 9.6 0.00 0.00 0.00 64 1011.4
20190717220952 80 38 5.2 9.6 0.00 0.00 0.00 62 1011.4
20190717220851 80 36 5.2 10.4 0.00 0.00 0.00 63 1011.3
20190717220751 80 35 6.1 10.4 0.00 0.00 0.00 62 1011.4
20190717220652 80 32 6.1 10.4 0.00 0.00 0.00 62 1011.4
20190717220551 80 32 6.1 10.4 0.00 0.00 0.00 62 1011.4
20190717220451 80 31 6.1 10.4 0.00 0.00 0.00 61 1011.4
20190717220352 80 28 6.1 10.4 0.00 0.00 0.00 63 1011.4
20190717220251 80 27 6.1 10.4 0.00 0.00 0.00 61 1011.4
20190717220151 80 27 6.1 10.4 0.00 0.00 0.00 61 1011.5
20190717220051 81 27 6.1 10.4 0.00 0.00 0.00 62 1011.5
20190717215955 81 29 5.2 10.4 0.00 0.00 0.00 62 1011.5
20190717215851 81 30 5.2 10.4 0.00 0.00 0.00 62 1011.5
20190717215752 81 32 5.2 10.4 0.00 0.00 0.00 61 1011.5
20190717215651 81 32 5.2 10.4 0.00 0.00 0.00 61 1011.6
20190717215551 81 32 5.2 10.4 0.00 0.00 0.00 62 1011.5
20190717215453 81 32 5.2 9.6 0.00 0.00 0.00 62 1011.6
20190717215351 81 33 6.1 11.3 0.00 0.00 0.00 64 1011.6
20190717215252 81 32 6.1 11.3 0.00 0.00 0.00 63 1011.5
20190717215151 81 33 6.1 11.3 0.00 0.00 0.00 64 1011.6
20190717215051 80 31 7.0 11.3 0.00 0.00 0.00 63 1011.5
20190717214952 80 30 7.0 11.3 0.00 0.00 0.00 62 1011.5
20190717214851 80 30 7.8 12.2 0.00 0.00 0.00 62 1011.5
20190717214751 80 28 7.8 12.2 0.00 0.00 0.00 63 1011.5
20190717214651 80 28 7.8 12.2 0.00 0.00 0.00 62 1011.5
20190717214551 80 28 7.0 12.2 0.00 0.00 0.00 62 1011.5
20190717214451 80 29 7.0 12.2 0.00 0.00 0.00 60 1011.5
20190717214351 80 28 7.0 12.2 0.00 0.00 0.00 60 1011.6
20190717214252 80 28 7.0 12.2 0.00 0.00 0.00 63 1011.5
20190717214151 80 27 7.0 12.2 0.00 0.00 0.00 60 1011.5
20190717214051 80 27 6.1 12.2 0.00 0.00 0.00 61 1011.5
20190717213952 80 28 6.1 12.2 0.00 0.00 0.00 61 1011.5
20190717213851 80 29 6.1 11.3 0.00 0.00 0.00 63 1011.5
20190717213752 80 29 6.1 11.3 0.00 0.00 0.00 62 1011.5
20190717213651 80 29 6.1 11.3 0.00 0.00 0.00 64 1011.6
20190717213551 80 28 6.1 11.3 0.00 0.00 0.00 62 1011.5
20190717213451 80 28 6.1 11.3 0.00 0.00 0.00 60 1011.5
20190717213351 80 29 6.1 11.3 0.00 0.00 0.00 61 1011.5
20190717213251 80 30 5.2 9.6 0.00 0.00 0.00 61 1011.5
20190717213151 80 30 5.2 9.6 0.00 0.00 0.00 62 1011.5
20190717213051 80 31 5.2 9.6 0.00 0.00 0.00 63 1011.5
20190717212952 80 31 5.2 9.6 0.00 0.00 0.00 61 1011.5
20190717212851 81 31 5.2 9.6 0.00 0.00 0.00 62 1011.5
20190717212752 80 32 5.2 9.6 0.00 0.00 0.00 62 1011.5
20190717212651 80 32 5.2 10.4 0.00 0.00 0.00 63 1011.5
20190717212551 80 35 5.2 10.4 0.00 0.00 0.00 64 1011.5
20190717212452 80 36 5.2 10.4 0.00 0.00 0.00 63 1011.5
20190717212351 80 38 5.2 10.4 0.00 0.00 0.00 61 1011.5
20190717212252 80 40 5.2 10.4 0.00 0.00 0.00 62 1011.5
20190717212151 80 39 5.2 10.4 0.00 0.00 0.00 61 1011.5
20190717212051 80 38 5.2 10.4 0.00 0.00 0.00 61 1011.4
20190717211952 80 37 5.2 10.4 0.00 0.00 0.00 62 1011.5
20190717211851 80 36 5.2 10.4 0.00 0.00 0.00 61 1011.5
20190717211751 80 39 5.2 10.4 0.00 0.00 0.00 60 1011.5
20190717211651 80 40 5.2 9.6 0.00 0.00 0.00 61 1011.5
20190717211551 80 42 5.2 9.6 0.00 0.00 0.00 64 1011.5
20190717211451 80 45 6.1 9.6 0.00 0.00 0.00 62 1011.5
20190717211352 80 46 6.1 9.6 0.00 0.00 0.00 62 1011.5
20190717211251 80 45 6.1 9.6 0.00 0.00 0.00 61 1011.4
20190717211151 80 47 6.1 9.6 0.00 0.00 0.00 61 1011.5
20190717211052 80 46 6.1 9.6 0.00 0.00 0.00 62 1011.5
20190717210951 80 46 6.1 9.6 0.00 0.00 0.00 60 1011.4
20190717210851 80 43 6.1 12.2 0.00 0.00 0.00 61 1011.5
20190717210752 80 39 6.1 12.2 0.00 0.00 0.00 60 1011.4
20190717210651 80 39 6.1 12.2 0.00 0.00 0.00 62 1011.5
20190717210551 80 36 6.1 12.2 0.00 0.00 0.00 60 1011.5
20190717210452 80 31 6.1 12.2 0.00 0.00 0.00 61 1011.5
20190717210351 80 28 5.2 12.2 0.00 0.00 0.00 63 1011.5
20190717210251 80 25 6.1 12.2 0.00 0.00 0.00 62 1011.6
20190717210152 80 25 6.1 12.2 0.00 0.00 0.00 61 1011.6
20190717210051 80 25 6.1 12.2 0.00 0.00 0.00 60 1011.6
20190717205955 80 25 6.1 12.2 0.00 0.00 0.00 59 1011.6
20190717205851 80 25 5.2 10.4 0.00 0.00 0.00 61 1011.7
20190717205751 80 26 5.2 10.4 0.00 0.00 0.00 60 1011.7
20190717205652 80 27 5.2 10.4 0.00 0.00 0.00 62 1011.7
20190717205551 80 28 6.1 10.4 0.00 0.00 0.00 62 1011.7
20190717205452 80 29 6.1 10.4 0.00 0.00 0.00 64 1011.7
20190717205351 80 30 6.1 10.4 0.00 0.00 0.00 60 1011.7
20190717205251 80 30 6.1 10.4 0.00 0.00 0.00 61 1011.7
20190717205151 80 31 6.1 10.4 0.00 0.00 0.00 62 1011.8
20190717205051 80 30 6.1 10.4 0.00 0.00 0.00 61 1011.8
20190717204951 80 30 7.0 11.3 0.00 0.00 0.00 61 1011.8
20190717204851 80 29 7.0 11.3 0.00 0.00 0.00 62 1011.8
20190717204752 80 32 7.0 11.3 0.00 0.00 0.00 61 1011.8
20190717204651 80 35 7.0 11.3 0.00 0.00 0.00 62 1011.8
20190717204551 80 34 7.0 11.3 0.00 0.00 0.00 62 1011.8
20190717204452 80 33 7.0 11.3 0.00 0.00 0.00 63 1011.8
20190717204351 80 32 7.0 11.3 0.00 0.00 0.00 62 1011.8
20190717204251 80 31 7.0 11.3 0.00 0.00 0.00 59 1011.8
20190717204151 80 32 7.0 11.3 0.00 0.00 0.00 59 1011.8
20190717204051 80 32 7.0 11.3 0.00 0.00 0.00 60 1011.9
20190717203951 80 32 6.1 10.4 0.00 0.00 0.00 64 1012.0
20190717203852 80 33 6.1 10.4 0.00 0.00 0.00 60 1011.9
20190717203751 80 30 6.1 10.4 0.00 0.00 0.00 61 1011.9
20190717203651 80 26 6.1 10.4 0.00 0.00 0.00 60 1011.9
20190717203552 80 25 5.2 10.4 0.00 0.00 0.00 60 1012.0
20190717203451 80 24 5.2 10.4 0.00 0.00 0.00 60 1011.9
20190717203352 80 25 5.2 10.4 0.00 0.00 0.00 62 1011.9
20190717203251 80 25 5.2 10.4 0.00 0.00 0.00 61 1011.9
20190717203151 80 25 5.2 10.4 0.00 0.00 0.00 60 1011.9
20190717203051 80 25 5.2 10.4 0.00 0.00 0.00 60 1012.0
20190717202955 80 25 4.3 10.4 0.00 0.00 0.00 63 1012.0
20190717202851 80 26 4.3 10.4 0.00 0.00 0.00 62 1011.9
20190717202751 80 26 4.3 10.4 0.00 0.00 0.00 60 1012.0
20190717202651 80 26 5.2 10.4 0.00 0.00 0.00 62 1011.9
20190717202552 80 25 5.2 10.4 0.00 0.00 0.00 63 1012.0
20190717202451 80 26 5.2 10.4 0.00 0.00 0.00 61 1011.9
20190717202351 80 25 6.1 10.4 0.00 0.00 0.00 63 1012.0
20190717202251 80 25 6.1 10.4 0.00 0.00 0.00 62 1011.9
20190717202151 80 25 5.2 10.4 0.00 0.00 0.00 61 1012.0
20190717202051 80 25 5.2 10.4 0.00 0.00 0.00 62 1012.0
20190717201951 80 24 6.1 9.6 0.00 0.00 0.00 63 1012.0
20190717201851 80 23 6.1 11.3 0.00 0.00 0.00 63 1012.0
20190717201752 80 24 6.1 11.3 0.00 0.00 0.00 62 1012.0
20190717201651 80 24 6.1 11.3 0.00 0.00 0.00 62 1012.0
20190717201551 80 25 6.1 11.3 0.00 0.00 0.00 62 1012.0
20190717201452 80 25 6.1 11.3 0.00 0.00 0.00 63 1012.0
20190717201351 80 24 6.1 11.3 0.00 0.00 0.00 64 1012.1
20190717201251 80 24 6.1 11.3 0.00 0.00 0.00 61 1012.1
20190717201151 80 25 6.1 11.3 0.00 0.00 0.00 63 1012.2
20190717201052 80 28 6.1 11.3 0.00 0.00 0.00 60 1012.2
20190717200951 80 29 6.1 11.3 0.00 0.00 0.00 61 1012.2
20190717200851 80 30 5.2 11.3 0.00 0.00 0.00 64 1012.1
20190717200751 80 30 6.1 11.3 0.00 0.00 0.00 65 1012.1
20190717200651 80 31 6.1 11.3 0.00 0.00 0.00 61 1012.1
20190717200550 80 31 6.1 11.3 0.00 0.00 0.00 61 1012.1
20190717200451 80 34 5.2 11.3 0.00 0.00 0.00 62 1012.1
20190717200351 80 36 5.2 11.3 0.00 0.00 0.00 63 1012.1
20190717200251 80 38 5.2 11.3 0.00 0.00 0.00 62 1012.1
20190717200151 80 37 5.2 11.3 0.00 0.00 0.00 63 1012.1
20190717200051 80 35 5.2 11.3 0.00 0.00 0.00 63 1012.1
20190717195953 80 35 5.2 11.3 0.00 0.00 0.00 62 1012.2
20190717195851 80 34 6.1 11.3 0.00 0.00 0.00 62 1012.2
20190717195750 80 33 6.1 11.3 0.00 0.00 0.00 64 1012.2
20190717195651 80 33 6.1 11.3 0.00 0.00 0.00 64 1012.2
20190717195551 80 33 6.1 11.3 0.00 0.00 0.00 63 1012.2
20190717195452 80 30 7.0 11.3 0.00 0.00 0.00 61 1012.3
20190717195351 80 29 7.0 11.3 0.00 0.00 0.00 64 1012.2
20190717195251 80 27 7.0 11.3 0.00 0.00 0.00 63 1012.2
20190717195151 80 27 7.0 11.3 0.00 0.00 0.00 62 1012.3
20190717195051 80 27 7.0 11.3 0.00 0.00 0.00 62 1012.3
20190717194951 80 26 7.0 11.3 0.00 0.00 0.00 62 1012.3
20190717194851 80 26 7.0 11.3 0.00 0.00 0.00 60 1012.3
20190717194751 80 25 7.0 11.3 0.00 0.00 0.00 60 1012.3
20190717194651 80 27 7.0 11.3 0.00 0.00 0.00 60 1012.3
20190717194551 80 27 7.0 11.3 0.00 0.00 0.00 61 1012.3
20190717194451 80 29 6.1 11.3 0.00 0.00 0.00 60 1012.3
20190717194351 80 29 6.1 11.3 0.00 0.00 0.00 61 1012.3
20190717194251 80 30 5.2 9.6 0.00 0.00 0.00 65 1012.3
20190717194151 80 29 5.2 9.6 0.00 0.00 0.00 62 1012.3
20190717194051 80 29 5.2 9.6 0.00 0.00 0.00 63 1012.3
20190717193951 80 29 5.2 9.6 0.00 0.00 0.00 62 1012.4
20190717193852 80 30 5.2 9.6 0.00 0.00 0.00 62 1012.4
20190717193751 80 30 5.2 9.6 0.00 0.00 0.00 61 1012.4
20190717193652 80 27 5.2 11.3 0.00 0.00 0.00 62 1012.4
20190717193551 80 27 5.2 11.3 0.00 0.00 0.00 61 1012.4
20190717193451 80 29 5.2 11.3 0.00 0.00 0.00 63 1012.4
20190717193351 80 31 5.2 11.3 0.00 0.00 0.00 63 1012.4
20190717193251 80 34 5.2 11.3 0.00 0.00 0.00 61 1012.4
20190717193151 80 38 5.2 11.3 0.00 0.00 0.00 64 1012.5
20190717193051 80 39 5.2 11.3 0.00 0.00 0.00 64 1012.4
20190717192953 80 39 5.2 11.3 0.00 0.00 0.00 65 1012.5
20190717192851 80 38 5.2 11.3 0.00 0.00 0.00 64 1012.5
20190717192751 80 39 5.2 10.4 0.00 0.00 0.00 64 1012.5
20190717192651 80 40 5.2 10.4 0.00 0.00 0.00 61 1012.5
20190717192551 80 39 4.3 10.4 0.00 0.00 0.00 61 1012.5
20190717192451 80 40 4.3 10.4 0.00 0.00 0.00 60 1012.5
20190717192351 80 40 4.3 10.4 0.00 0.00 0.00 62 1012.4
20190717192251 80 40 4.3 10.4 0.00 0.00 0.00 63 1012.4
20190717192151 80 38 4.3 10.4 0.00 0.00 0.00 63 1012.5
20190717192051 80 40 4.3 10.4 0.00 0.00 0.00 62 1012.5
20190717191951 80 41 4.3 10.4 0.00 0.00 0.00 60 1012.5
20190717191852 80 46 4.3 10.4 0.00 0.00 0.00 64 1012.5
20190717191751 80 47 3.5 7.8 0.00 0.00 0.00 64 1012.5
20190717191651 80 49 3.5 7.8 0.00 0.00 0.00 63 1012.5
20190717191551 80 48 4.3 7.8 0.00 0.00 0.00 64 1012.5
20190717191451 80 46 4.3 8.7 0.00 0.00 0.00 63 1012.5
20190717191351 80 44 4.3 8.7 0.00 0.00 0.00 62 1012.5
20190717191251 80 40 4.3 8.7 0.00 0.00 0.00 65 1012.5
20190717191151 80 37 5.2 9.6 0.00 0.00 0.00 64 1012.5
20190717191051 80 37 5.2 9.6 0.00 0.00 0.00 60 1012.6
20190717190951 80 36 5.2 9.6 0.00 0.00 0.00 61 1012.6
20190717190851 80 32 5.2 9.6 0.00 0.00 0.00 60 1012.6
20190717190751 80 32 5.2 9.6 0.00 0.00 0.00 63 1012.6
20190717190651 80 32 5.2 9.6 0.00 0.00 0.00 63 1012.7
20190717190551 80 34 5.2 9.6 0.00 0.00 0.00 61 1012.7
20190717190452 80 34 5.2 9.6 0.00 0.00 0.00 63 1012.6
20190717190351 80 34 5.2 9.6 0.00 0.00 0.00 61 1012.7
20190717190251 80 34 5.2 9.6 0.00 0.00 0.00 60 1012.7
20190717190151 80 35 4.3 9.6 0.00 0.00 0.00 63 1012.6
20190717190051 80 34 4.3 9.6 0.00 0.00 0.00 60 1012.6
20190717185953 80 35 4.3 9.6 0.00 0.00 0.00 60 1012.7
20190717185851 80 36 4.3 9.6 0.00 0.00 0.00 61 1012.6
20190717185751 80 35 4.3 9.6 0.00 0.00 0.00 63 1012.6
20190717185651 80 36 4.3 9.6 0.00 0.00 0.00 61 1012.6
20190717185551 80 36 4.3 9.6 0.00 0.00 0.00 63 1012.6
20190717185451 80 39 4.3 9.6 0.00 0.00 0.00 61 1012.7
20190717185351 80 43 4.3 9.6 0.00 0.00 0.00 62 1012.7
20190717185251 80 46 3.5 9.6 0.00 0.00 0.00 62 1012.7
20190717185151 80 44 3.5 9.6 0.00 0.00 0.00 62 1012.7
20190717185051 80 43 4.3 9.6 0.00 0.00 0.00 60 1012.8
20190717184952 80 44 4.3 8.7 0.00 0.00 0.00 65 1012.7
20190717184851 80 46 3.5 8.7 0.00 0.00 0.00 64 1012.7
20190717184751 80 48 3.5 8.7 0.00 0.00 0.00 62 1012.7
20190717184652 80 45 3.5 8.7 0.00 0.00 0.00 63 1012.7
20190717184551 80 42 4.3 9.6 0.00 0.00 0.00 62 1012.7
20190717184452 80 37 4.3 9.6 0.00 0.00 0.00 64 1012.8
20190717184351 80 33 3.5 9.6 0.00 0.00 0.00 61 1012.8
20190717184251 80 32 3.5 9.6 0.00 0.00 0.00 62 1012.8
20190717184151 80 33 3.5 9.6 0.00 0.00 0.00 65 1012.8
20190717184051 80 33 3.5 9.6 0.00 0.00 0.00 66 1012.8
20190717183951 80 33 3.5 9.6 0.00 0.00 0.00 64 1012.7
20190717183851 80 33 4.3 9.6 0.00 0.00 0.00 61 1012.8
20190717183751 80 32 4.3 9.6 0.00 0.00 0.00 66 1012.8
20190717183651 80 31 4.3 9.6 0.00 0.00 0.00 62 1012.8
20190717183550 80 31 4.3 8.7 0.00 0.00 0.00 66 1012.8
20190717183451 80 32 4.3 8.7 0.00 0.00 0.00 65 1012.8
20190717183351 80 35 4.3 8.7 0.00 0.00 0.00 63 1012.9
20190717183250 80 35 4.3 8.7 0.00 0.00 0.00 66 1012.8
20190717183151 80 37 4.3 8.7 0.00 0.00 0.00 64 1012.9
20190717183051 79 38 4.3 8.7 0.00 0.00 0.00 65 1012.9
20190717182953 79 38 4.3 8.7 0.00 0.00 0.00 63 1012.9
20190717182851 80 37 4.3 8.7 0.00 0.00 0.00 65 1012.9
20190717182751 80 38 4.3 7.8 0.00 0.00 0.00 65 1012.8
20190717182651 80 39 4.3 7.8 0.00 0.00 0.00 62 1012.9
20190717182551 80 40 4.3 7.8 0.00 0.00 0.00 64 1012.8
20190717182451 79 39 4.3 8.7 0.00 0.00 0.00 64 1012.8
20190717182351 79 35 4.3 8.7 0.00 0.00 0.00 65 1012.9
20190717182250 79 37 4.3 8.7 0.00 0.00 0.00 64 1012.9
20190717182151 79 34 4.3 8.7 0.00 0.00 0.00 63 1012.8
20190717182051 79 33 4.3 8.7 0.00 0.00 0.00 63 1012.8
20190717181951 79 32 4.3 8.7 0.00 0.00 0.00 61 1012.9
20190717181851 79 32 4.3 8.7 0.00 0.00 0.00 65 1012.9
20190717181751 79 33 4.3 8.7 0.00 0.00 0.00 66 1012.9
20190717181651 79 34 4.3 8.7 0.00 0.00 0.00 62 1012.9
20190717181551 80 34 3.5 8.7 0.00 0.00 0.00 65 1012.8
20190717181452 79 38 3.5 7.0 0.00 0.00 0.00 66 1012.8
20190717181351 79 41 3.5 7.0 0.00 0.00 0.00 67 1012.8
20190717181251 79 43 3.5 7.0 0.00 0.00 0.00 62 1012.9
20190717181151 79 49 3.5 7.0 0.00 0.00 0.00 62 1012.9
20190717181051 79 51 3.5 7.0 0.00 0.00 0.00 62 1012.9
20190717180951 79 55 3.5 7.0 0.00 0.00 0.00 67 1012.9
20190717180851 79 54 3.5 7.8 0.00 0.00 0.00 66 1012.9
20190717180750 79 54 3.5 7.8 0.00 0.00 0.00 62 1012.9
20190717180651 79 57 3.5 7.8 0.00 0.00 0.00 61 1012.9
20190717180551 79 56 3.5 7.8 0.00 0.00 0.00 63 1012.9
20190717180451 79 52 3.5 7.8 0.00 0.00 0.00 64 1012.9
20190717180351 79 52 3.5 7.8 0.00 0.00 0.00 65 1012.9
20190717180250 79 51 3.5 7.8 0.00 0.00 0.00 65 1012.9
20190717180151 79 48 3.5 7.8 0.00 0.00 0.00 63 1012.9
20190717180051 79 48 3.5 7.8 0.00 0.00 0.00 63 1012.9
20190717175952 79 45 3.5 7.8 0.00 0.00 0.00 66 1012.8
20190717175851 79 46 3.5 7.8 0.00 0.00 0.00 67 1012.8
20190717175751 79 46 3.5 7.8 0.00 0.00 0.00 65 1012.9
20190717175651 79 46 3.5 7.8 0.00 0.00 0.00 64 1012.9
20190717175552 79 49 3.5 7.8 0.00 0.00 0.00 63 1012.9
20190717175451 79 55 3.5 9.6 0.00 0.00 0.00 61 1012.9
20190717175351 79 53 4.3 9.6 0.00 0.00 0.00 63 1012.9
20190717175251 79 52 4.3 9.6 0.00 0.00 0.00 64 1012.9
20190717175151 79 53 4.3 9.6 0.00 0.00 0.00 63 1013.0
20190717175051 79 51 4.3 9.6 0.00 0.00 0.00 66 1013.0
20190717174951 79 53 4.3 9.6 0.00 0.00 0.00 65 1012.9
20190717174851 79 54 3.5 9.6 0.00 0.00 0.00 64 1013.0
20190717174751 79 53 3.5 9.6 0.00 0.00 0.00 64 1012.9
20190717174651 78 53 3.5 9.6 0.00 0.00 0.00 62 1012.9
20190717174551 79 48 4.3 9.6 0.00 0.00 0.00 63 1013.0
20190717174451 78 42 3.5 7.8 0.00 0.00 0.00 65 1012.9
20190717174351 78 42 3.5 7.8 0.00 0.00 0.00 63 1013.0
20190717174250 78 45 4.3 7.8 0.00 0.00 0.00 64 1013.0
20190717174151 78 48 3.5 7.8 0.00 0.00 0.00 65 1012.9
20190717174051 78 49 3.5 7.8 0.00 0.00 0.00 64 1012.9
20190717173951 78 53 3.5 7.8 0.00 0.00 0.00 64 1013.0
20190717173851 78 51 3.5 7.8 0.00 0.00 0.00 62 1012.9
20190717173750 78 52 3.5 7.8 0.00 0.00 0.00 64 1012.9
20190717173651 78 50 3.5 7.8 0.00 0.00 0.00 63 1013.0
20190717173551 79 51 3.5 7.0 0.00 0.00 0.00 62 1012.9
20190717173451 79 55 3.5 7.0 0.00 0.00 0.00 62 1012.9
20190717173351 78 57 3.5 7.8 0.00 0.00 0.00 64 1012.9
20190717173250 78 56 3.5 7.8 0.00 0.00 0.00 62 1012.9
20190717173151 78 56 3.5 7.8 0.00 0.00 0.00 60 1012.9
20190717173051 78 55 4.3 7.8 0.00 0.00 0.00 63 1012.9
20190717172952 78 51 4.3 7.8 0.00 0.00 0.00 63 1013.0
20190717172851 78 54 4.3 7.8 0.00 0.00 0.00 64 1013.0
20190717172751 78 53 4.3 7.8 0.00 0.00 0.00 64 1012.9
20190717172651 78 54 4.3 7.8 0.00 0.00 0.00 65 1012.9
20190717172550 78 57 4.3 7.8 0.00 0.00 0.00 64 1012.9
20190717172451 78 59 4.3 7.8 0.00 0.00 0.00 66 1012.9
20190717172351 78 64 4.3 7.8 0.00 0.00 0.00 64 1013.0
20190717172250 78 67 4.3 7.8 0.00 0.00 0.00 62 1012.9
20190717172151 78 67 4.3 8.7 0.00 0.00 0.00 63 1012.9
20190717172050 79 68 4.3 8.7 0.00 0.00 0.00 65 1012.9
20190717171951 79 71 4.3 8.7 0.00 0.00 0.00 67 1012.9
20190717171851 79 72 4.3 8.7 0.00 0.00 0.00 66 1012.9
20190717171751 79 75 4.3 8.7 0.00 0.00 0.00 67 1012.9
20190717171651 78 76 4.3 8.7 0.00 0.00 0.00 68 1012.9
20190717171550 78 77 4.3 8.7 0.00 0.00 0.00 64 1012.9
20190717171451 78 78 4.3 8.7 0.00 0.00 0.00 65 1012.9
20190717171350 78 75 4.3 8.7 0.00 0.00 0.00 66 1012.9
20190717171251 78 73 3.5 8.7 0.00 0.00 0.00 65 1012.9
20190717171151 78 72 3.5 7.8 0.00 0.00 0.00 65 1012.9
20190717171050 78 72 3.5 7.8 0.00 0.00 0.00 65 1012.8
20190717170951 78 73 3.5 7.8 0.00 0.00 0.00 66 1012.9
20190717170850 78 72 4.3 7.8 0.00 0.00 0.00 63 1012.8
20190717170751 78 73 4.3 7.8 0.00 0.00 0.00 65 1012.7
20190717170651 78 72 3.5 7.8 0.00 0.00 0.00 66 1012.7
20190717170550 78 70 3.5 7.8 0.00 0.00 0.00 66 1012.8
20190717170451 78 66 3.5 7.8 0.00 0.00 0.00 66 1012.8
20190717170351 78 63 3.5 7.8 0.00 0.00 0.00 68 1012.8
20190717170250 78 64 4.3 7.8 0.00 0.00 0.00 66 1012.9
20190717170151 78 61 4.3 7.8 0.00 0.00 0.00 66 1012.9
20190717170050 78 58 4.3 7.8 0.00 0.00 0.00 65 1012.9
20190717165952 78 55 4.3 8.7 0.00 0.00 0.00 65 1012.8
20190717165851 78 54 4.3 8.7 0.00 0.00 0.00 67 1012.8
20190717165751 78 54 4.3 8.7 0.00 0.00 0.00 66 1012.8
20190717165650 78 56 4.3 8.7 0.00 0.00 0.00 66 1012.8
20190717165550 78 57 4.3 8.7 0.00 0.00 0.00 65 1012.9
20190717165451 78 59 4.3 8.7 0.00 0.00 0.00 67 1012.8
20190717165351 78 62 4.3 8.7 0.00 0.00 0.00 66 1012.8
20190717165251 78 63 3.5 8.7 0.00 0.00 0.00 66 1012.8
20190717165151 78 65 3.5 8.7 0.00 0.00 0.00 65 1012.8
20190717165050 78 69 3.5 8.7 0.00 0.00 0.00 67 1012.8
20190717164951 78 72 3.5 8.7 0.00 0.00 0.00 65 1012.8
20190717164851 78 71 3.5 8.7 0.00 0.00 0.00 66 1012.8
20190717164751 78 69 4.3 9.6 0.00 0.00 0.00 69 1012.8
20190717164650 78 66 3.5 9.6 0.00 0.00 0.00 68 1012.8
20190717164551 78 63 4.3 9.6 0.00 0.00 0.00 67 1012.8
20190717164451 77 62 4.3 9.6 0.00 0.00 0.00 68 1012.8
20190717164351 77 60 4.3 9.6 0.00 0.00 0.00 66 1012.8
20190717164251 77 58 4.3 9.6 0.00 0.00 0.00 68 1012.8
20190717164150 77 58 4.3 9.6 0.00 0.00 0.00 67 1012.8
20190717164051 77 56 3.5 9.6 0.00 0.00 0.00 69 1012.8
20190717163951 77 53 3.5 9.6 0.00 0.00 0.00 65 1012.8
20190717163851 77 51 3.5 9.6 0.00 0.00 0.00 68 1012.8
20190717163750 77 48 3.5 8.7 0.00 0.00 0.00 66 1012.9
20190717163650 77 47 3.5 8.7 0.00 0.00 0.00 67 1012.9
20190717163551 77 45 3.5 8.7 0.00 0.00 0.00 68 1012.9
20190717163451 77 40 4.3 8.7 0.00 0.00 0.00 68 1012.9
20190717163351 77 37 4.3 8.7 0.00 0.00 0.00 67 1012.8
20190717163251 77 36 4.3 8.7 0.00 0.00 0.00 70 1012.8
20190717163150 77 35 4.3 8.7 0.00 0.00 0.00 66 1012.8
20190717163051 77 34 4.3 8.7 0.00 0.00 0.00 69 1012.8
20190717162952 77 34 4.3 8.7 0.00 0.00 0.00 69 1012.8
20190717162851 77 33 4.3 8.7 0.00 0.00 0.00 72 1012.8
20190717162750 77 32 4.3 8.7 0.00 0.00 0.00 72 1012.8
20190717162651 77 34 4.3 8.7 0.00 0.00 0.00 69 1012.8
20190717162551 77 35 4.3 8.7 0.00 0.00 0.00 68 1012.8
20190717162450 77 40 4.3 8.7 0.00 0.00 0.00 71 1012.8
20190717162351 77 43 4.3 8.7 0.00 0.00 0.00 69 1012.8
20190717162251 77 48 3.5 8.7 0.00 0.00 0.00 69 1012.9
20190717162151 77 53 3.5 8.7 0.00 0.00 0.00 69 1012.8
20190717162051 77 57 3.5 8.7 0.00 0.00 0.00 68 1012.9
20190717161951 77 63 3.5 7.8 0.00 0.00 0.00 69 1012.9
20190717161850 77 69 3.5 7.8 0.00 0.00 0.00 68 1012.9
20190717161751 77 73 3.5 7.8 0.00 0.00 0.00 68 1012.9
20190717161651 77 73 4.3 7.8 0.00 0.00 0.00 70 1012.9
20190717161550 77 73 3.5 7.8 0.00 0.00 0.00 71 1012.9
20190717161451 77 72 3.5 7.8 0.00 0.00 0.00 70 1012.9
20190717161351 77 70 4.3 7.8 0.00 0.00 0.00 69 1012.9
20190717161250 77 67 4.3 7.8 0.00 0.00 0.00 69 1012.9
20190717161151 77 63 4.3 7.8 0.00 0.00 0.00 68 1013.0
20190717161051 77 62 4.3 7.8 0.00 0.00 0.00 69 1012.9
20190717160951 77 62 4.3 7.8 0.00 0.00 0.00 69 1012.9
20190717160851 77 61 4.3 7.8 0.00 0.00 0.00 68 1012.9
20190717160750 76 62 4.3 7.8 0.00 0.00 0.00 70 1012.9
20190717160650 76 63 4.3 7.8 0.00 0.00 0.00 67 1012.9
20190717160551 76 64 4.3 7.8 0.00 0.00 0.00 68 1013.0
20190717160451 76 64 4.3 7.8 0.00 0.00 0.00 70 1013.0
20190717160350 76 66 4.3 8.7 0.00 0.00 0.00 70 1013.0
20190717160251 76 68 4.3 8.7 0.00 0.00 0.00 70 1013.1
20190717160150 76 68 4.3 8.7 0.00 0.00 0.00 68 1013.1
20190717160051 76 65 5.2 8.7 0.00 0.00 0.00 69 1013.1
20190717155952 76 63 5.2 8.7 0.00 0.00 0.00 68 1013.0
20190717155851 76 61 5.2 8.7 0.00 0.00 0.00 69 1013.0
20190717155750 76 60 5.2 8.7 0.00 0.00 0.00 70 1013.0
20190717155651 76 60 4.3 8.7 0.00 0.00 0.00 71 1013.0
20190717155551 76 59 4.3 8.7 0.00 0.00 0.00 69 1013.0
20190717155451 76 57 4.3 8.7 0.00 0.00 0.00 68 1013.0
20190717155350 76 49 4.3 7.8 0.00 0.00 0.00 69 1012.9
20190717155251 76 45 4.3 7.8 0.00 0.00 0.00 69 1012.9
20190717155151 76 46 3.5 7.8 0.00 0.00 0.00 70 1012.9
20190717155050 76 47 3.5 7.8 0.00 0.00 0.00 72 1012.9
20190717154951 76 48 3.5 7.8 0.00 0.00 0.00 72 1012.9
20190717154851 76 52 3.5 7.8 0.00 0.00 0.00 70 1012.9
20190717154751 76 51 3.5 7.8 0.00 0.00 0.00 72 1012.9
20190717154651 76 50 3.5 7.8 0.00 0.00 0.00 70 1012.9
20190717154551 76 51 3.5 7.8 0.00 0.00 0.00 69 1012.9
20190717154451 76 50 3.5 7.8 0.00 0.00 0.00 69 1012.9
20190717154351 76 56 3.5 7.8 0.00 0.00 0.00 72 1012.9
20190717154250 76 61 3.5 7.8 0.00 0.00 0.00 72 1012.9
20190717154151 76 63 3.5 7.8 0.00 0.00 0.00 71 1012.9
20190717154051 76 68 3.5 7.8 0.00 0.00 0.00 70 1012.9
20190717153950 76 70 3.5 7.8 0.00 0.00 0.00 70 1012.8
20190717153851 76 71 2.6 7.0 0.00 0.00 0.00 70 1012.8
20190717153750 76 71 3.5 7.0 0.00 0.00 0.00 70 1012.8
20190717153650 76 70 3.5 7.0 0.00 0.00 0.00 70 1012.8
20190717153550 76 69 2.6 7.0 0.00 0.00 0.00 69 1012.8
20190717153451 76 70 3.5 7.0 0.00 0.00 0.00 69 1012.8
20190717153350 76 69 3.5 7.0 0.00 0.00 0.00 70 1012.8
20190717153250 76 69 3.5 7.0 0.00 0.00 0.00 72 1012.7
20190717153151 76 64 3.5 7.0 0.00 0.00 0.00 70 1012.8
20190717153051 76 58 3.5 7.0 0.00 0.00 0.00 69 1012.8
20190717152952 76 53 3.5 7.8 0.00 0.00 0.00 72 1012.8
20190717152850 76 49 4.3 7.8 0.00 0.00 0.00 70 1012.8
20190717152750 76 46 4.3 7.8 0.00 0.00 0.00 71 1012.9
20190717152650 76 43 4.3 7.8 0.00 0.00 0.00 71 1012.8
20190717152551 76 45 4.3 7.8 0.00 0.00 0.00 71 1012.8
20190717152450 75 46 4.3 7.8 0.00 0.00 0.00 71 1012.8
20190717152351 75 47 3.5 7.8 0.00 0.00 0.00 73 1012.7
20190717152251 75 50 4.3 7.8 0.00 0.00 0.00 72 1012.7
20190717152150 76 57 4.3 7.8 0.00 0.00 0.00 70 1012.7
20190717152051 76 63 4.3 7.8 0.00 0.00 0.00 72 1012.7
20190717151951 76 70 3.5 7.8 0.00 0.00 0.00 71 1012.6
20190717151850 76 75 3.5 7.0 0.00 0.00 0.00 73 1012.6
20190717151750 76 79 3.5 7.0 0.00 0.00 0.00 73 1012.6
20190717151651 76 82 3.5 7.8 0.00 0.00 0.00 72 1012.6
20190717151551 75 80 4.3 7.8 0.00 0.00 0.00 72 1012.6
20190717151451 75 77 4.3 7.8 0.00 0.00 0.00 71 1012.6
20190717151350 75 77 4.3 7.8 0.00 0.00 0.00 71 1012.6
20190717151250 75 76 4.3 7.8 0.00 0.00 0.00 71 1012.6
20190717151151 75 73 4.3 7.8 0.00 0.00 0.00 71 1012.5
20190717151051 75 73 3.5 7.8 0.00 0.00 0.00 72 1012.5
20190717150951 75 72 3.5 7.8 0.00 0.00 0.00 72 1012.5
20190717150851 75 72 3.5 7.8 0.00 0.00 0.00 72 1012.5
20190717150751 75 73 3.5 7.8 0.00 0.00 0.00 71 1012.5
20190717150650 75 73 3.5 7.8 0.00 0.00 0.00 70 1012.5
20190717150551 75 74 3.5 7.8 0.00 0.00 0.00 71 1012.5
20190717150451 75 75 3.5 7.8 0.00 0.00 0.00 71 1012.5
20190717150350 75 74 3.5 7.8 0.00 0.00 0.00 73 1012.7
20190717150250 75 74 2.6 7.0 0.00 0.00 0.00 74 1012.6
20190717150151 75 76 2.6 7.0 0.00 0.00 0.00 71 1012.7
20190717150050 75 75 2.6 7.0 0.00 0.00 0.00 73 1012.7
20190717145952 75 75 2.6 7.0 0.00 0.00 0.00 74 1012.7
20190717145851 75 73 2.6 7.0 0.00 0.00 0.00 74 1012.7
20190717145751 74 71 2.6 7.0 0.00 0.00 0.00 74 1012.7
20190717145651 74 71 3.5 7.0 0.00 0.00 0.00 72 1012.8
20190717145550 74 71 3.5 7.0 0.00 0.00 0.00 73 1012.8
20190717145451 74 73 3.5 7.0 0.00 0.00 0.00 73 1012.8
20190717145351 74 73 3.5 7.0 0.00 0.00 0.00 73 1012.9
20190717145250 74 74 3.5 7.0 0.00 0.00 0.00 72 1012.9
20190717145150 74 76 3.5 7.0 0.00 0.00 0.00 72 1012.9
20190717145051 74 77 3.5 7.0 0.00 0.00 0.00 72 1012.9
20190717144950 74 79 3.5 6.1 0.00 0.00 0.00 72 1012.9
20190717144851 74 81 3.5 6.1 0.00 0.00 0.00 71 1012.9
20190717144750 75 78 3.5 6.1 0.00 0.00 0.00 73 1012.9
20190717144650 74 76 3.5 6.1 0.00 0.00 0.00 73 1012.9
20190717144550 74 74 3.5 6.1 0.00 0.00 0.00 72 1012.9
20190717144451 74 67 2.6 6.1 0.00 0.00 0.00 73 1012.9
20190717144351 74 61 2.6 6.1 0.00 0.00 0.00 74 1012.9
20190717144250 74 56 3.5 6.1 0.00 0.00 0.00 75 1012.9
20190717144150 74 50 3.5 6.1 0.00 0.00 0.00 74 1012.9
20190717144051 74 46 2.6 6.1 0.00 0.00 0.00 75 1012.9
20190717143951 74 45 3.5 7.0 0.00 0.00 0.00 74 1012.9
20190717143851 74 45 3.5 7.0 0.00 0.00 0.00 76 1012.8
20190717143751 73 48 3.5 7.0 0.00 0.00 0.00 75 1012.8
20190717143650 73 50 3.5 7.0 0.00 0.00 0.00 75 1012.8
20190717143550 73 51 3.5 7.0 0.00 0.00 0.00 75 1012.8
20190717143451 73 54 2.6 7.0 0.00 0.00 0.00 74 1012.8
20190717143350 73 56 3.5 7.0 0.00 0.00 0.00 75 1012.8
20190717143250 73 60 3.5 7.0 0.00 0.00 0.00 75 1012.8
20190717143151 73 65 3.5 7.0 0.00 0.00 0.00 75 1012.8
20190717143050 73 67 3.5 7.0 0.00 0.00 0.00 76 1012.8
20190717142951 73 66 3.5 7.0 0.00 0.00 0.00 75 1012.9
20190717142851 73 66 3.5 7.0 0.00 0.00 0.00 74 1012.9
20190717142750 73 65 3.5 7.0 0.00 0.00 0.00 74 1012.9
20190717142650 73 62 3.5 7.0 0.00 0.00 0.00 74 1012.9
20190717142551 73 61 3.5 7.0 0.00 0.00 0.00 74 1013.0
20190717142451 73 60 3.5 7.0 0.00 0.00 0.00 75 1013.0
20190717142350 73 60 3.5 7.0 0.00 0.00 0.00 75 1013.0
20190717142251 73 59 3.5 7.0 0.00 0.00 0.00 75 1012.8
20190717142150 73 57 3.5 7.0 0.00 0.00 0.00 75 1012.8
20190717142050 73 56 2.6 7.0 0.00 0.00 0.00 75 1012.7
20190717141951 73 60 2.6 7.0 0.00 0.00 0.00 75 1012.7
20190717141850 73 62 2.6 7.0 0.00 0.00 0.00 76 1012.6
20190717141751 73 64 2.6 7.0 0.00 0.00 0.00 75 1012.7
20190717141651 73 69 2.6 6.1 0.00 0.00 0.00 74 1012.6
20190717141550 73 69 2.6 6.1 0.00 0.00 0.00 75 1012.6
20190717141451 73 68 2.6 6.1 0.00 0.00 0.00 74 1012.6
20190717141350 73 68 2.6 6.1 0.00 0.00 0.00 75 1012.7
20190717141251 73 68 2.6 6.1 0.00 0.00 0.00 75 1012.7
20190717141151 73 65 2.6 6.1 0.00 0.00 0.00 77 1012.7
20190717141050 73 60 2.6 6.1 0.00 0.00 0.00 76 1012.8
20190717140951 72 56 2.6 6.1 0.00 0.00 0.00 75 1012.7
20190717140850 72 53 2.6 6.1 0.00 0.00 0.00 76 1012.7
20190717140750 72 46 3.5 7.8 0.00 0.00 0.00 76 1012.7
20190717140651 72 42 3.5 7.8 0.00 0.00 0.00 75 1012.7
20190717140550 72 43 3.5 7.8 0.00 0.00 0.00 77 1012.8
20190717140450 72 44 2.6 7.8 0.00 0.00 0.00 76 1012.7
20190717140351 72 43 2.6 7.8 0.00 0.00 0.00 76 1012.8
20190717140250 72 45 3.5 7.8 0.00 0.00 0.00 75 1012.8
20190717140150 72 49 2.6 7.8 0.00 0.00 0.00 75 1012.7
20190717140051 72 54 2.6 7.8 0.00 0.00 0.00 76 1012.7
20190717135951 72 57 2.6 7.8 0.00 0.00 0.00 76 1012.6
20190717135851 72 59 2.6 7.8 0.00 0.00 0.00 76 1012.6
20190717135750 72 67 2.6 4.3 0.00 0.00 0.00 76 1012.6
20190717135650 72 73 2.6 5.2 0.00 0.00 0.00 76 1012.7
20190717135551 72 77 2.6 6.1 0.00 0.00 0.00 75 1012.7
20190717135450 72 78 2.6 6.1 0.00 0.00 0.00 75 1012.7
20190717135351 73 79 2.6 6.1 0.00 0.00 0.00 75 1012.7
20190717135251 73 79 2.6 6.1 0.00 0.00 0.00 75 1012.7
20190717135150 73 78 2.6 6.1 0.00 0.00 0.00 75 1012.6
20190717135051 73 79 2.6 6.1 0.00 0.00 0.00 75 1012.6
20190717134950 73 80 2.6 6.1 0.00 0.00 0.00 75 1012.6
20190717134851 73 81 2.6 6.1 0.00 0.00 0.00 76 1012.6
20190717134751 73 81 2.6 6.1 0.00 0.00 0.00 76 1012.6
20190717134650 72 79 2.6 6.1 0.00 0.00 0.00 77 1012.5
20190717134550 72 78 2.6 4.3 0.00 0.00 0.00 78 1012.5
20190717134451 72 80 2.6 6.1 0.00 0.00 0.00 77 1012.5
20190717134351 72 80 2.6 6.1 0.00 0.00 0.00 77 1012.5
20190717134251 72 81 2.6 6.1 0.00 0.00 0.00 77 1012.5
20190717134150 72 81 2.6 6.1 0.00 0.00 0.00 77 1012.5
20190717134051 72 80 3.5 6.1 0.00 0.00 0.00 77 1012.5
20190717133951 72 79 3.5 6.1 0.00 0.00 0.00 77 1012.6
20190717133850 72 78 3.5 6.1 0.00 0.00 0.00 79 1012.5
20190717133750 72 79 3.5 6.1 0.00 0.00 0.00 78 1012.5
20190717133650 72 79 3.5 6.1 0.00 0.00 0.00 78 1012.5
20190717133550 72 78 3.5 6.1 0.00 0.00 0.00 78 1012.5
20190717133451 72 76 3.5 6.1 0.00 0.00 0.00 78 1012.6
20190717133351 71 75 3.5 6.1 0.00 0.00 0.00 78 1012.6
20190717133250 72 73 3.5 6.1 0.00 0.00 0.00 78 1012.6
20190717133150 71 71 3.5 6.1 0.00 0.00 0.00 78 1012.6
20190717133051 71 71 3.5 6.1 0.00 0.00 0.00 80 1012.6
20190717132952 71 71 3.5 6.1 0.00 0.00 0.00 78 1012.6
20190717132850 71 71 3.5 6.1 0.00 0.00 0.00 78 1012.6
20190717132750 71 71 2.6 6.1 0.00 0.00 0.00 78 1012.6
20190717132651 71 71 3.5 6.1 0.00 0.00 0.00 78 1012.6
20190717132550 71 71 3.5 6.1 0.00 0.00 0.00 79 1012.7
20190717132451 71 72 2.6 6.1 0.00 0.00 0.00 79 1012.7
20190717132351 71 73 2.6 6.1 0.00 0.00 0.00 78 1012.7
20190717132250 71 74 2.6 6.1 0.00 0.00 0.00 78 1012.7
20190717132150 71 74 3.5 6.1 0.00 0.00 0.00 78 1012.7
20190717132051 71 74 3.5 7.0 0.00 0.00 0.00 78 1012.7
20190717131951 71 74 2.6 7.0 0.00 0.00 0.00 78 1012.7
20190717131851 71 73 2.6 7.0 0.00 0.00 0.00 78 1012.6
20190717131750 71 69 3.5 7.0 0.00 0.00 0.00 79 1012.6
20190717131650 71 66 2.6 7.0 0.00 0.00 0.00 79 1012.6
20190717131551 71 67 2.6 7.0 0.00 0.00 0.00 79 1012.7
20190717131451 71 68 2.6 7.0 0.00 0.00 0.00 78 1012.6
20190717131350 71 69 2.6 7.0 0.00 0.00 0.00 78 1012.6
20190717131251 71 70 2.6 7.0 0.00 0.00 0.00 78 1012.7
20190717131150 71 71 2.6 7.0 0.00 0.00 0.00 80 1012.6
20190717131050 71 70 2.6 7.0 0.00 0.00 0.00 79 1012.6
20190717130951 71 70 2.6 7.0 0.00 0.00 0.00 79 1012.6
20190717130850 71 69 2.6 7.0 0.00 0.00 0.00 78 1012.6
20190717130750 71 72 2.6 5.2 0.00 0.00 0.00 79 1012.5
20190717130651 71 74 2.6 5.2 0.00 0.00 0.00 79 1012.5
20190717130550 71 73 2.6 4.3 0.00 0.00 0.00 79 1012.4
20190717130451 71 70 2.6 5.2 0.00 0.00 0.00 79 1012.5
20190717130350 71 68 2.6 5.2 0.00 0.00 0.00 79 1012.4
20190717130250 71 67 2.6 5.2 0.00 0.00 0.00 79 1012.4
20190717130150 70 67 2.6 6.1 0.00 0.00 0.00 79 1012.4
20190717130050 70 67 2.6 6.1 0.00 0.00 0.00 79 1012.4
20190717125952 70 68 3.5 6.1 0.00 0.00 0.00 79 1012.3
20190717125850 70 68 3.5 6.1 0.00 0.00 0.00 78 1012.3
20190717125750 70 70 3.5 6.1 0.00 0.00 0.00 78 1012.3
20190717125651 70 72 3.5 6.1 0.00 0.00 0.00 79 1012.3
20190717125550 70 75 3.5 6.1 0.00 0.00 0.00 79 1012.3
20190717125451 70 78 2.6 6.1 0.00 0.00 0.00 79 1012.3
20190717125350 71 79 3.5 6.1 0.00 0.00 0.00 79 1012.2
20190717125250 71 79 3.5 6.1 0.00 0.00 0.00 79 1012.2
20190717125151 71 79 3.5 6.1 0.00 0.00 0.00 78 1012.2
20190717125050 71 80 3.5 6.1 0.00 0.00 0.00 79 1012.2
20190717124950 71 81 3.5 6.1 0.00 0.00 0.00 80 1012.2
20190717124851 71 84 2.6 6.1 0.00 0.00 0.00 80 1012.2
20190717124751 71 84 3.5 6.1 0.00 0.00 0.00 80 1012.2
20190717124650 70 84 3.5 6.1 0.00 0.00 0.00 80 1012.2
20190717124551 70 83 3.5 6.1 0.00 0.00 0.00 79 1012.1
20190717124450 70 82 3.5 6.1 0.00 0.00 0.00 79 1012.1
20190717124351 71 82 3.5 6.1 0.00 0.00 0.00 79 1012.1
20190717124250 71 83 3.5 6.1 0.00 0.00 0.00 80 1012.1
20190717124150 71 86 3.5 6.1 0.00 0.00 0.00 79 1012.1
20190717124050 71 88 3.5 6.1 0.00 0.00 0.00 79 1012.2
20190717123951 71 89 3.5 6.1 0.00 0.00 0.00 79 1012.2
20190717123851 70 89 3.5 6.1 0.00 0.00 0.00 79 1012.2
20190717123750 70 88 3.5 6.1 0.00 0.00 0.00 78 1012.2
20190717123650 71 87 2.6 6.1 0.00 0.00 0.00 79 1012.3
20190717123550 71 85 2.6 6.1 0.00 0.00 0.00 79 1012.3
20190717123450 71 84 2.6 6.1 0.00 0.00 0.00 80 1012.3
20190717123350 70 82 2.6 6.1 0.00 0.00 0.00 80 1012.3
20190717123250 70 80 1.7 6.1 0.00 0.00 0.00 81 1012.3
20190717123150 70 75 1.7 6.1 0.00 0.00 0.00 81 1012.3
20190717123050 70 70 1.7 5.2 0.00 0.00 0.00 82 1012.3
20190717122952 70 66 1.7 3.5 0.00 0.00 0.00 81 1012.3
20190717122851 70 63 1.7 3.5 0.00 0.00 0.00 82 1012.3
20190717122750 70 60 1.7 3.5 0.00 0.00 0.00 82 1012.3
20190717122650 70 59 1.7 3.5 0.00 0.00 0.00 81 1012.3
20190717122550 70 59 1.7 3.5 0.00 0.00 0.00 82 1012.4
20190717122451 70 59 1.7 3.5 0.00 0.00 0.00 82 1012.4
20190717122351 70 59 1.7 3.5 0.00 0.00 0.00 81 1012.4
20190717122250 70 60 1.7 3.5 0.00 0.00 0.00 83 1012.4
20190717122150 70 59 1.7 3.5 0.00 0.00 0.00 83 1012.4
20190717122050 70 60 0.9 2.6 0.00 0.00 0.00 83 1012.4
20190717121955 70 61 0.9 2.6 0.00 0.00 0.00 83 1012.5
20190717121850 70 63 0.9 2.6 0.00 0.00 0.00 83 1012.5
20190717121751 70 65 0.9 2.6 0.00 0.00 0.00 84 1012.6
20190717121650 70 67 0.9 2.6 0.00 0.00 0.00 84 1012.5
20190717121550 70 67 0.9 2.6 0.00 0.00 0.00 84 1012.6
20190717121452 70 67 0.9 2.6 0.00 0.00 0.00 84 1012.6
20190717121350 70 67 0.9 2.6 0.00 0.00 0.00 84 1012.5
20190717121251 70 67 0.9 2.6 0.00 0.00 0.00 84 1012.5
20190717121150 70 67 0.9 2.6 0.00 0.00 0.00 85 1012.6
20190717121050 70 67 0.9 2.6 0.00 0.00 0.00 85 1012.6
20190717120956 70 67 0.9 2.6 0.00 0.00 0.00 85 1012.6
20190717120850 70 67 0.9 2.6 0.00 0.00 0.00 85 1012.6
20190717120752 70 66 0.9 2.6 0.00 0.00 0.00 85 1012.6
20190717120653 70 66 0.9 2.6 0.00 0.00 0.00 86 1012.6
20190717120550 69 66 0.9 2.6 0.00 0.00 0.00 86 1012.6
20190717120451 69 66 0.9 2.6 0.00 0.00 0.00 86 1012.6
20190717120350 69 65 0.9 2.6 0.00 0.00 0.00 86 1012.6
20190717120250 69 65 0.9 2.6 0.00 0.00 0.00 86 1012.6
20190717120150 69 64 0.9 2.6 0.00 0.00 0.00 86 1012.6
20190717120050 69 64 0.9 2.6 0.00 0.00 0.00 86 1012.5
20190717120005 69 64 0.9 2.6 0.00 0.00 0.00 86 1012.5
20190717115850 69 64 0.9 2.6 0.00 0.00 0.00 87 1012.4
20190717115750 69 63 0.9 2.6 0.00 0.00 0.00 87 1012.4
20190717115651 69 63 0.9 2.6 0.00 0.00 0.00 87 1012.4
20190717115550 69 62 0.9 2.6 0.00 0.00 0.00 87 1012.3
20190717115451 69 62 0.0 2.6 0.00 0.00 0.00 87 1012.4
20190717115350 69 62 0.0 2.6 0.00 0.00 0.00 88 1012.4
20190717115251 69 56 0.0 2.6 0.00 0.00 0.00 88 1012.4
20190717115150 69 55 0.0 0.9 0.00 0.00 0.00 88 1012.4
20190717115050 69 55 0.0 0.9 0.00 0.00 0.00 87 1012.4
20190717114951 69 55 0.0 0.9 0.00 0.00 0.00 87 1012.4
20190717114850 69 0 0.0 0.0 0.00 0.00 0.00 88 1012.4
20190717114750 68 0 0.0 0.0 0.00 0.00 0.00 88 1012.4
20190717114650 68 0 0.0 0.0 0.00 0.00 0.00 88 1012.4
20190717114550 68 0 0.0 0.0 0.00 0.00 0.00 88 1012.4
20190717114450 68 56 0.0 1.7 0.00 0.00 0.00 88 1012.4
20190717114351 68 56 0.0 1.7 0.00 0.00 0.00 88 1012.4
20190717114250 68 56 0.0 1.7 0.00 0.00 0.00 88 1012.4
20190717114150 68 56 0.0 1.7 0.00 0.00 0.00 88 1012.5
20190717114050 68 56 0.0 1.7 0.00 0.00 0.00 88 1012.5
20190717113951 68 56 0.0 1.7 0.00 0.00 0.00 88 1012.4
20190717113850 68 56 0.0 1.7 0.00 0.00 0.00 88 1012.3
20190717113750 67 56 0.0 1.7 0.00 0.00 0.00 88 1012.3
20190717113651 67 56 0.0 1.7 0.00 0.00 0.00 88 1012.3
20190717113551 67 56 0.0 1.7 0.00 0.00 0.00 88 1012.3
20190717113450 67 56 0.0 1.7 0.00 0.00 0.00 88 1012.3
20190717113350 67 56 0.0 0.9 0.00 0.00 0.00 88 1012.2
20190717113250 67 56 0.0 0.9 0.00 0.00 0.00 88 1012.2
20190717113150 67 0 0.0 0.0 0.00 0.00 0.00 88 1012.2
20190717113050 67 0 0.0 0.0 0.00 0.00 0.00 88 1012.2
20190717112952 67 0 0.0 0.0 0.00 0.00 0.00 88 1012.2
20190717112850 66 0 0.0 0.0 0.00 0.00 0.00 88 1012.2
20190717112750 66 0 0.0 0.0 0.00 0.00 0.00 88 1012.2
20190717112650 66 0 0.0 0.0 0.00 0.00 0.00 89 1012.2
20190717112550 66 0 0.0 0.0 0.00 0.00 0.00 89 1012.2
20190717112450 66 0 0.0 0.0 0.00 0.00 0.00 89 1012.2
20190717112351 66 0 0.0 0.0 0.00 0.00 0.00 89 1012.2
20190717112250 66 0 0.0 0.0 0.00 0.00 0.00 89 1012.2
20190717112150 66 0 0.0 0.0 0.00 0.00 0.00 89 1012.2
20190717112050 66 0 0.0 0.0 0.00 0.00 0.00 88 1012.2
20190717111951 66 0 0.0 0.0 0.00 0.00 0.00 88 1012.2
20190717111850 66 0 0.0 0.0 0.00 0.00 0.00 88 1012.2
20190717111750 66 0 0.0 0.0 0.00 0.00 0.00 88 1012.2
20190717111650 66 0 0.0 0.0 0.00 0.00 0.00 89 1012.2
20190717111550 65 0 0.0 0.0 0.00 0.00 0.00 89 1012.2
20190717111451 65 0 0.0 0.0 0.00 0.00 0.00 89 1012.2
20190717111350 65 0 0.0 0.0 0.00 0.00 0.00 89 1012.2
20190717111250 65 0 0.0 0.0 0.00 0.00 0.00 88 1012.3
20190717111150 65 0 0.0 0.0 0.00 0.00 0.00 88 1012.3
20190717111050 65 0 0.0 0.0 0.00 0.00 0.00 88 1012.3
20190717110951 65 0 0.0 0.0 0.00 0.00 0.00 88 1012.3
20190717110850 65 0 0.0 0.0 0.00 0.00 0.00 88 1012.3
20190717110750 65 0 0.0 0.0 0.00 0.00 0.00 88 1012.3
20190717110650 65 0 0.0 0.0 0.00 0.00 0.00 88 1012.3
20190717110550 65 0 0.0 0.0 0.00 0.00 0.00 88 1012.3
20190717110451 65 0 0.0 0.0 0.00 0.00 0.00 88 1012.2
20190717110350 65 0 0.0 0.0 0.00 0.00 0.00 88 1012.2
20190717110250 65 0 0.0 0.0 0.00 0.00 0.00 88 1012.3
20190717110150 65 0 0.0 0.0 0.00 0.00 0.00 88 1012.2
20190717110050 65 0 0.0 0.0 0.00 0.00 0.00 88 1012.3
20190717105953 65 0 0.0 0.0 0.00 0.00 0.00 88 1012.2
20190717105851 65 0 0.0 0.0 0.00 0.00 0.00 88 1012.2
20190717105750 65 0 0.0 0.0 0.00 0.00 0.00 88 1012.2
20190717105650 65 0 0.0 0.0 0.00 0.00 0.00 88 1012.2
20190717105550 65 0 0.0 0.0 0.00 0.00 0.00 88 1012.2
20190717105450 65 0 0.0 0.0 0.00 0.00 0.00 88 1012.2
20190717105350 65 0 0.0 0.0 0.00 0.00 0.00 88 1012.1
20190717105250 65 0 0.0 0.0 0.00 0.00 0.00 88 1012.1
20190717105150 65 0 0.0 0.0 0.00 0.00 0.00 88 1012.1
20190717105050 65 0 0.0 0.0 0.00 0.00 0.00 88 1012.1
20190717104950 65 0 0.0 0.0 0.00 0.00 0.00 88 1012.1
20190717104850 65 0 0.0 0.0 0.00 0.00 0.00 88 1012.1
20190717104750 65 0 0.0 0.0 0.00 0.00 0.00 88 1012.1
20190717104650 65 0 0.0 0.0 0.00 0.00 0.00 88 1012.1
20190717104550 65 0 0.0 0.0 0.00 0.00 0.00 88 1012.1
20190717104450 65 0 0.0 0.0 0.00 0.00 0.00 89 1012.1
20190717104350 65 0 0.0 0.0 0.00 0.00 0.00 89 1012.0
20190717104250 65 0 0.0 0.0 0.00 0.00 0.00 89 1012.0
20190717104150 65 0 0.0 0.0 0.00 0.00 0.00 89 1012.0
20190717104050 65 0 0.0 0.0 0.00 0.00 0.00 89 1012.0
20190717103950 65 0 0.0 0.0 0.00 0.00 0.00 89 1012.0
20190717103850 65 0 0.0 0.0 0.00 0.00 0.00 89 1012.0
20190717103750 66 0 0.0 0.0 0.00 0.00 0.00 89 1012.0
20190717103650 66 0 0.0 0.0 0.00 0.00 0.00 88 1012.0
20190717103550 66 0 0.0 0.0 0.00 0.00 0.00 88 1012.0
20190717103450 66 0 0.0 0.0 0.00 0.00 0.00 88 1012.0
20190717103350 66 0 0.0 0.0 0.00 0.00 0.00 88 1012.0
20190717103250 66 0 0.0 0.0 0.00 0.00 0.00 88 1012.0
20190717103150 66 0 0.0 0.0 0.00 0.00 0.00 88 1011.9
20190717103050 66 0 0.0 0.0 0.00 0.00 0.00 88 1011.9
20190717102951 66 0 0.0 0.0 0.00 0.00 0.00 88 1011.9
20190717102850 66 0 0.0 0.0 0.00 0.00 0.00 88 1011.9
20190717102750 66 0 0.0 0.0 0.00 0.00 0.00 88 1011.9
20190717102650 66 0 0.0 0.0 0.00 0.00 0.00 88 1011.9
20190717102550 66 0 0.0 0.0 0.00 0.00 0.00 88 1011.9
20190717102450 66 0 0.0 0.0 0.00 0.00 0.00 88 1011.9
20190717102350 66 0 0.0 0.0 0.00 0.00 0.00 88 1011.9
20190717102250 66 0 0.0 0.0 0.00 0.00 0.00 88 1011.9
20190717102150 66 0 0.0 0.0 0.00 0.00 0.00 88 1011.9
20190717102050 66 0 0.0 0.0 0.00 0.00 0.00 89 1011.8
20190717101950 65 0 0.0 0.0 0.00 0.00 0.00 89 1011.9
20190717101850 65 0 0.0 0.0 0.00 0.00 0.00 89 1011.8
20190717101750 65 0 0.0 0.0 0.00 0.00 0.00 89 1011.9
20190717101650 65 0 0.0 0.0 0.00 0.00 0.00 89 1011.9
20190717101550 65 0 0.0 0.0 0.00 0.00 0.00 89 1011.8
20190717101450 65 0 0.0 0.0 0.00 0.00 0.00 89 1011.8
20190717101350 65 0 0.0 0.0 0.00 0.00 0.00 89 1011.8
20190717101250 65 0 0.0 0.0 0.00 0.00 0.00 88 1011.8
20190717101150 65 0 0.0 0.0 0.00 0.00 0.00 89 1011.8
20190717101050 65 0 0.0 0.0 0.00 0.00 0.00 88 1011.8
20190717100950 65 0 0.0 0.0 0.00 0.00 0.00 89 1011.8
20190717100850 65 0 0.0 0.0 0.00 0.00 0.00 88 1011.8
20190717100750 65 0 0.0 0.0 0.00 0.00 0.00 88 1011.8
20190717100650 65 0 0.0 0.0 0.00 0.00 0.00 88 1011.8
20190717100550 65 0 0.0 0.0 0.00 0.00 0.00 88 1011.8
20190717100451 65 0 0.0 0.0 0.00 0.00 0.00 88 1011.8
20190717100350 65 0 0.0 0.0 0.00 0.00 0.00 88 1011.8
20190717100250 65 0 0.0 0.0 0.00 0.00 0.00 88 1011.8
20190717100150 65 0 0.0 0.0 0.00 0.00 0.00 88 1011.8
20190717100050 65 0 0.0 0.0 0.00 0.00 0.00 88 1011.8
20190717095953 65 0 0.0 0.0 0.00 0.00 0.00 88 1011.8
20190717095850 65 0 0.0 0.0 0.00 0.00 0.00 88 1011.8
20190717095750 65 0 0.0 0.0 0.00 0.00 0.00 88 1011.8
20190717095650 65 0 0.0 0.0 0.00 0.00 0.00 88 1011.7
20190717095550 65 0 0.0 0.0 0.00 0.00 0.00 88 1011.8
20190717095450 66 0 0.0 0.0 0.00 0.00 0.00 88 1011.8
20190717095350 66 0 0.0 0.0 0.00 0.00 0.00 88 1011.7
20190717095249 66 0 0.0 0.0 0.00 0.00 0.00 88 1011.7
20190717095150 66 0 0.0 0.0 0.00 0.00 0.00 88 1011.7
20190717095050 66 0 0.0 0.0 0.00 0.00 0.00 88 1011.7
20190717094950 66 0 0.0 0.0 0.00 0.00 0.00 88 1011.8
20190717094850 66 0 0.0 0.0 0.00 0.00 0.00 88 1011.8
20190717094750 66 0 0.0 0.0 0.00 0.00 0.00 88 1011.8
20190717094651 66 0 0.0 0.0 0.00 0.00 0.00 88 1011.8
20190717094550 66 0 0.0 0.0 0.00 0.00 0.00 88 1011.8
20190717094450 66 0 0.0 0.0 0.00 0.00 0.00 88 1011.8
20190717094349 66 0 0.0 0.0 0.00 0.00 0.00 88 1011.7
20190717094250 66 0 0.0 0.0 0.00 0.00 0.00 88 1011.7
20190717094150 66 0 0.0 0.0 0.00 0.00 0.00 88 1011.7
20190717094050 66 0 0.0 0.0 0.00 0.00 0.00 88 1011.7
20190717093950 66 0 0.0 0.0 0.00 0.00 0.00 88 1011.7
20190717093850 66 0 0.0 0.0 0.00 0.00 0.00 88 1011.8
20190717093749 66 0 0.0 0.0 0.00 0.00 0.00 88 1011.7
20190717093650 66 0 0.0 0.0 0.00 0.00 0.00 88 1011.8
20190717093550 66 0 0.0 0.0 0.00 0.00 0.00 88 1011.8
20190717093451 66 0 0.0 0.0 0.00 0.00 0.00 88 1011.8
20190717093350 66 0 0.0 0.0 0.00 0.00 0.00 88 1011.8
20190717093250 66 56 0.0 0.9 0.00 0.00 0.00 88 1011.8
20190717093149 66 55 0.0 0.9 0.00 0.00 0.00 88 1011.8
20190717093050 66 55 0.0 0.9 0.00 0.00 0.00 88 1011.8
20190717092953 66 55 0.0 0.9 0.00 0.00 0.00 88 1011.8
20190717092850 66 55 0.0 0.9 0.00 0.00 0.00 88 1011.7
20190717092750 66 56 0.0 1.7 0.00 0.00 0.00 88 1011.7
20190717092650 66 56 0.0 1.7 0.00 0.00 0.00 88 1011.7
20190717092550 66 56 0.0 1.7 0.00 0.00 0.00 88 1011.7
20190717092450 66 55 0.0 1.7 0.00 0.00 0.00 88 1011.6
20190717092350 66 55 0.0 1.7 0.00 0.00 0.00 88 1011.6
20190717092250 66 55 0.9 2.6 0.00 0.00 0.00 88 1011.6
20190717092150 66 55 0.9 2.6 0.00 0.00 0.00 88 1011.6
20190717092050 66 55 0.9 2.6 0.00 0.00 0.00 88 1011.6
20190717091950 66 55 0.9 2.6 0.00 0.00 0.00 88 1011.6
20190717091850 66 56 0.9 2.6 0.00 0.00 0.00 88 1011.6
20190717091750 66 56 0.9 2.6 0.00 0.00 0.00 88 1011.6
20190717091650 66 56 0.9 2.6 0.00 0.00 0.00 88 1011.6
20190717091550 66 57 0.9 2.6 0.00 0.00 0.00 88 1011.5
20190717091450 66 57 0.9 2.6 0.00 0.00 0.00 88 1011.5
20190717091350 66 57 0.9 2.6 0.00 0.00 0.00 88 1011.4
20190717091250 66 57 0.9 2.6 0.00 0.00 0.00 88 1011.4
20190717091150 66 58 0.9 2.6 0.00 0.00 0.00 88 1011.4
20190717091049 66 58 0.9 2.6 0.00 0.00 0.00 88 1011.4
20190717090950 66 60 0.0 2.6 0.00 0.00 0.00 88 1011.4
20190717090850 66 66 0.0 1.7 0.00 0.00 0.00 88 1011.4
20190717090749 66 70 0.0 2.6 0.00 0.00 0.00 88 1011.4
20190717090650 66 72 0.0 2.6 0.00 0.00 0.00 88 1011.4
20190717090550 66 77 0.0 2.6 0.00 0.00 0.00 88 1011.3
20190717090451 66 81 0.9 2.6 0.00 0.00 0.00 88 1011.2
20190717090350 66 84 0.9 2.6 0.00 0.00 0.00 88 1011.2
20190717090249 66 85 0.9 2.6 0.00 0.00 0.00 88 1011.2
20190717090150 66 86 0.9 2.6 0.00 0.00 0.00 88 1011.1
20190717090050 66 87 1.7 2.6 0.00 0.00 0.00 88 1011.1
20190717085952 66 88 1.7 2.6 0.00 0.00 0.00 88 1011.1
20190717085849 66 89 1.7 2.6 0.00 0.00 0.00 88 1011.1
20190717085750 66 90 1.7 2.6 0.00 0.00 0.00 88 1011.1
20190717085650 66 90 1.7 2.6 0.00 0.00 0.00 88 1011.1
20190717085550 66 90 1.7 2.6 0.00 0.00 0.00 88 1011.1
20190717085451 66 90 1.7 2.6 0.00 0.00 0.00 88 1011.1
20190717085350 66 90 1.7 2.6 0.00 0.00 0.00 88 1011.0
20190717085250 66 90 1.7 2.6 0.00 0.00 0.00 88 1011.0
20190717085150 66 90 1.7 2.6 0.00 0.00 0.00 88 1011.0
20190717085050 66 90 1.7 2.6 0.00 0.00 0.00 88 1010.9
20190717084951 66 90 1.7 2.6 0.00 0.00 0.00 88 1011.0
20190717084850 66 90 1.7 2.6 0.00 0.00 0.00 88 1011.0
20190717084750 66 90 1.7 2.6 0.00 0.00 0.00 88 1010.9
20190717084650 66 89 1.7 2.6 0.00 0.00 0.00 88 1011.0
20190717084550 66 88 1.7 2.6 0.00 0.00 0.00 88 1010.9
20190717084450 66 87 1.7 2.6 0.00 0.00 0.00 88 1010.9
20190717084349 65 86 1.7 2.6 0.00 0.00 0.00 88 1010.8
20190717084250 65 84 0.9 2.6 0.00 0.00 0.00 88 1010.8
20190717084151 66 81 0.9 2.6 0.00 0.00 0.00 88 1010.8
20190717084050 66 72 0.9 2.6 0.00 0.00 0.00 88 1010.8
20190717083950 66 39 0.9 2.6 0.00 0.00 0.00 88 1010.9
20190717083850 65 310 0.0 2.6 0.00 0.00 0.00 88 1010.9
20190717083750 65 292 0.0 1.7 0.00 0.00 0.00 88 1010.9
20190717083649 65 292 0.0 1.7 0.00 0.00 0.00 88 1010.9
20190717083550 65 292 0.0 0.9 0.00 0.00 0.00 88 1010.9
20190717083450 65 292 0.0 0.9 0.00 0.00 0.00 88 1010.9
20190717083350 65 292 0.0 0.9 0.00 0.00 0.00 88 1010.9
20190717083250 65 0 0.0 0.0 0.00 0.00 0.00 88 1010.9
20190717083150 65 0 0.0 0.0 0.00 0.00 0.00 88 1010.8
20190717083050 65 0 0.0 0.0 0.00 0.00 0.00 88 1010.8
20190717082951 65 0 0.0 0.0 0.00 0.00 0.00 88 1010.8
20190717082849 65 0 0.0 0.0 0.00 0.00 0.00 88 1010.9
20190717082750 65 0 0.0 0.0 0.00 0.00 0.00 88 1010.9
20190717082650 65 0 0.0 0.0 0.00 0.00 0.00 88 1010.9
20190717082549 65 0 0.0 0.0 0.00 0.00 0.00 88 1010.9
20190717082450 65 0 0.0 0.0 0.00 0.00 0.00 88 1010.9
20190717082349 65 0 0.0 0.0 0.00 0.00 0.00 88 1010.9
20190717082250 65 0 0.0 0.0 0.00 0.00 0.00 88 1010.9
20190717082150 65 0 0.0 0.0 0.00 0.00 0.00 88 1010.9
20190717082050 65 0 0.0 0.0 0.00 0.00 0.00 88 1010.9
20190717081950 65 0 0.0 0.0 0.00 0.00 0.00 88 1010.9
20190717081850 65 0 0.0 0.0 0.00 0.00 0.00 88 1010.9
20190717081750 65 0 0.0 0.0 0.00 0.00 0.00 88 1010.9
20190717081650 65 0 0.0 0.0 0.00 0.00 0.00 88 1010.9
20190717081550 65 0 0.0 0.0 0.00 0.00 0.00 88 1010.9
20190717081450 65 0 0.0 0.0 0.00 0.00 0.00 88 1011.0
20190717081350 65 0 0.0 0.0 0.00 0.00 0.00 88 1011.0
20190717081250 65 0 0.0 0.0 0.00 0.00 0.00 88 1011.0
20190717081150 65 0 0.0 0.0 0.00 0.00 0.00 88 1011.0
20190717081050 65 0 0.0 0.0 0.00 0.00 0.00 88 1011.0
20190717080950 65 0 0.0 0.0 0.00 0.00 0.00 88 1011.0
20190717080850 65 0 0.0 0.0 0.00 0.00 0.00 88 1011.0
20190717080750 65 0 0.0 0.0 0.00 0.00 0.00 88 1010.9
20190717080650 65 0 0.0 0.0 0.00 0.00 0.00 88 1011.0
20190717080550 65 0 0.0 0.0 0.00 0.00 0.00 88 1010.9
20190717080450 65 0 0.0 0.0 0.00 0.00 0.00 88 1010.9
20190717080350 65 0 0.0 0.0 0.00 0.00 0.00 88 1010.9
20190717080249 66 0 0.0 0.0 0.00 0.00 0.00 88 1010.8
20190717080149 65 0 0.0 0.0 0.00 0.00 0.00 88 1010.8
20190717080050 65 292 0.0 0.9 0.00 0.00 0.00 88 1010.8
20190717075954 65 292 0.0 0.9 0.00 0.00 0.00 88 1010.7
20190717075850 65 292 0.0 0.9 0.00 0.00 0.00 88 1010.7
20190717075750 65 292 0.0 0.9 0.00 0.00 0.00 88 1010.8
20190717075650 65 292 0.0 0.9 0.00 0.00 0.00 88 1010.7
20190717075550 65 292 0.0 0.9 0.00 0.00 0.00 88 1010.7
20190717075450 65 292 0.0 0.9 0.00 0.00 0.00 88 1010.6
20190717075350 65 292 0.0 0.9 0.00 0.00 0.00 88 1010.6
20190717075250 65 292 0.0 0.9 0.00 0.00 0.00 88 1010.6
20190717075150 65 292 0.0 1.7 0.00 0.00 0.00 88 1010.7
20190717075050 65 292 0.0 1.7 0.00 0.00 0.00 88 1010.6
20190717074950 66 292 0.0 1.7 0.00 0.00 0.00 88 1010.6
20190717074850 66 292 0.0 1.7 0.00 0.00 0.00 88 1010.7
20190717074749 66 292 0.0 1.7 0.00 0.00 0.00 88 1010.7
20190717074649 66 292 0.0 1.7 0.00 0.00 0.00 88 1010.7
20190717074550 66 292 0.0 1.7 0.00 0.00 0.00 88 1010.6
20190717074450 66 292 0.0 1.7 0.00 0.00 0.00 88 1010.6
20190717074350 66 292 0.0 1.7 0.00 0.00 0.00 88 1010.6
20190717074250 66 291 0.0 1.7 0.00 0.00 0.00 88 1010.7
20190717074150 66 291 0.0 0.9 0.00 0.00 0.00 88 1010.7
20190717074050 66 291 0.0 0.9 0.00 0.00 0.00 88 1010.7
20190717073950 66 291 0.0 0.9 0.00 0.00 0.00 88 1010.6
20190717073849 66 291 0.0 0.9 0.00 0.00 0.00 88 1010.6
20190717073750 66 291 0.0 0.9 0.00 0.00 0.00 88 1010.7
20190717073650 66 291 0.0 0.9 0.00 0.00 0.00 88 1010.7
20190717073550 66 291 0.0 0.9 0.00 0.00 0.00 88 1010.7
20190717073450 66 291 0.0 0.9 0.00 0.00 0.00 88 1010.7
20190717073350 66 291 0.0 0.9 0.00 0.00 0.00 88 1010.7
20190717073249 66 291 0.0 0.9 0.00 0.00 0.00 88 1010.6
20190717073150 66 291 0.0 0.9 0.00 0.00 0.00 88 1010.7
20190717073050 66 291 0.0 0.9 0.00 0.00 0.00 88 1010.7
20190717072951 66 292 0.0 0.9 0.00 0.00 0.00 88 1010.7
20190717072850 66 292 0.0 0.9 0.00 0.00 0.00 88 1010.7
20190717072749 66 292 0.0 0.9 0.00 0.00 0.00 88 1010.7
20190717072650 66 292 0.0 0.9 0.00 0.00 0.00 88 1010.7
20190717072550 66 292 0.0 0.9 0.00 0.00 0.00 88 1010.7
20190717072450 66 292 0.0 0.9 0.00 0.00 0.00 88 1010.8